M I D A S
Marine Information and Data Acquisition System
Tripno 1183 of the Zeeleeuw from 2006-12-22 08:53:50 to 2006-12-22 12:16:46
Back to CruiseResearch ActivitiesStationsMapUnderway DataData graphs

EquipmentUnitsComment
TimeDGPSUTC
LatitudeDGPSDM.mWGS84
LongitudeDGPSDM.mWGS84
TemperatureSBE03/SBE38deg celciusITS90
ConductivitySBE21S/mITS90
SalinitySBE21 Practical Salinity Units
ChlorophylAChelsea fluorimeterg/lCalibrated in Aceton
Missing or incorrect values are displayed as -999
Sea surface data collected by the RV Zeeleeuw from 2006-12-22 07:35:38 to 2006-12-22 12:28:48
                                                                                    Next 1000 lines
Time Latitude Longitude Temperature Conductivity Salinity ChlorophylA
2006-12-22 07:35:48 51°13.599 2°56.09 16.5879 0.064988 0.381767 -2.871232
2006-12-22 07:35:54 51°13.6 2°56.088 16.5862 0.064988 0.381767 -2.871232
2006-12-22 07:35:58 51°13.6 2°56.086 16.5873 0.064988 0.381767 -2.871232
2006-12-22 07:36:02 51°13.601 2°56.084 16.586 0.064988 0.381767 -2.871232
2006-12-22 07:36:08 51°13.602 2°56.079 16.5872 0.064988 0.381767 -2.871232
2006-12-22 07:36:13 51°13.602 2°56.075 16.5907 0.064988 0.381767 -2.871232
2006-12-22 07:36:18 51°13.604 2°56.07 16.59 0.064988 0.381767 -2.871232
2006-12-22 07:36:24 51°13.605 2°56.064 16.5891 0.064988 0.381767 -2.871232
2006-12-22 07:36:29 51°13.607 2°56.058 16.5912 0.064988 0.381759 -2.871232
2006-12-22 07:36:33 51°13.608 2°56.052 16.5902 0.064988 0.381759 -2.871232
2006-12-22 07:36:39 51°13.61 2°56.044 16.5928 0.064988 0.381767 -2.871232
2006-12-22 07:36:44 51°13.611 2°56.036 16.5928 0.064988 0.381759 -2.871232
2006-12-22 07:36:49 51°13.613 2°56.028 16.5936 0.064988 0.381759 -2.871232
2006-12-22 07:36:54 51°13.615 2°56.019 16.596 0.064988 0.381767 -2.871232
2006-12-22 07:36:59 51°13.617 2°56.01 16.5937 0.064988 0.381767 -2.871232
2006-12-22 07:37:04 51°13.62 2°56.001 16.5953 0.064988 0.381759 -2.871232
2006-12-22 07:37:08 51°13.621 2°55.994 16.597 0.064988 0.381759 -2.871232
2006-12-22 07:37:12 51°13.624 2°55.986 16.5984 0.064988 0.381759 -2.871232
2006-12-22 07:37:18 51°13.628 2°55.974 16.5964 0.064988 0.381767 -2.871232
2006-12-22 07:37:24 51°13.632 2°55.962 16.5984 0.064988 0.381759 -2.871232
2006-12-22 07:37:29 51°13.636 2°55.952 16.5999 0.064988 0.381759 -2.871232
2006-12-22 07:37:34 51°13.64 2°55.942 16.5981 0.064988 0.381759 -2.871232
2006-12-22 07:37:38 51°13.643 2°55.934 16.6009 0.064988 0.381759 -2.871232
2006-12-22 07:37:43 51°13.648 2°55.924 16.6006 0.064988 0.381759 -2.871232
2006-12-22 07:37:49 51°13.653 2°55.911 16.601 0.064988 0.381759 -2.871232
2006-12-22 07:37:53 51°13.657 2°55.903 16.5997 0.064988 0.381759 -2.871232
2006-12-22 07:37:58 51°13.662 2°55.893 16.5994 0.064988 0.381759 -2.871232
2006-12-22 07:38:03 51°13.668 2°55.883 16.5993 0.064988 0.381759 -2.871232
2006-12-22 07:38:08 51°13.673 2°55.872 16.5983 0.064988 0.381759 -2.871232
2006-12-22 07:38:13 51°13.679 2°55.862 16.6017 0.064988 0.381759 -2.871232
2006-12-22 07:38:19 51°13.685 2°55.85 16.5972 0.064988 0.381759 -2.871232
2006-12-22 07:38:24 51°13.69 2°55.841 16.5999 0.064988 0.381759 -2.871232
2006-12-22 07:38:28 51°13.694 2°55.833 16.5992 0.064988 0.381751 -2.871232
2006-12-22 07:38:33 51°13.699 2°55.822 16.6004 0.064988 0.381751 -2.871232
2006-12-22 07:38:39 51°13.704 2°55.81 16.6005 0.064988 0.381751 -2.871232
2006-12-22 07:38:43 51°13.707 2°55.802 16.6003 0.064988 0.381751 -2.871232
2006-12-22 07:38:48 51°13.711 2°55.791 16.6005 0.064988 0.381751 -2.871232
2006-12-22 07:38:53 51°13.714 2°55.781 16.6018 0.064988 0.381751 -2.871232
2006-12-22 07:38:59 51°13.718 2°55.769 16.604 0.064988 0.381751 -2.871232
2006-12-22 07:39:03 51°13.72 2°55.761 16.6052 0.064988 0.381751 -2.871232
2006-12-22 07:39:08 51°13.722 2°55.752 16.6064 0.064988 0.381751 -2.871232
2006-12-22 07:39:13 51°13.723 2°55.743 16.6043 0.064988 0.381751 -2.871232
2006-12-22 07:39:18 51°13.725 2°55.735 16.6059 0.064988 0.381759 -2.871232
2006-12-22 07:39:23 51°13.726 2°55.727 16.6042 0.064988 0.381759 -2.871232
2006-12-22 07:39:28 51°13.727 2°55.719 16.6069 0.064988 0.381751 -2.871232
2006-12-22 07:39:33 51°13.728 2°55.712 16.606 0.064988 0.381751 -2.871232
2006-12-22 07:39:38 51°13.729 2°55.706 16.6049 0.064988 0.381751 -2.871232
2006-12-22 07:39:43 51°13.729 2°55.702 16.6134 0.064988 0.381751 -2.871232
2006-12-22 07:39:48 51°13.73 2°55.701 16.616 0.064988 0.381751 -2.871232
2006-12-22 07:39:53 51°13.731 2°55.701 16.6133 0.064988 0.381743 -2.871232
2006-12-22 07:39:58 51°13.732 2°55.703 16.6156 0.064988 0.381743 -2.871232
2006-12-22 07:40:03 51°13.733 2°55.706 16.607 0.064988 0.381743 -2.871232
2006-12-22 07:40:08 51°13.735 2°55.709 16.6066 0.064988 0.381751 -2.871232
2006-12-22 07:40:13 51°13.736 2°55.711 16.6007 0.064988 0.381759 -2.871232
2006-12-22 07:40:18 51°13.738 2°55.713 16.6035 0.064988 0.381759 -2.871232
2006-12-22 07:40:23 51°13.738 2°55.713 16.6088 0.064988 0.381767 -2.871232
2006-12-22 07:40:28 51°13.738 2°55.713 16.61 0.064988 0.381767 -2.871232
2006-12-22 07:40:33 51°13.738 2°55.712 16.6079 0.064988 0.381767 -2.871232
2006-12-22 07:40:38 51°13.736 2°55.71 16.6118 0.064988 0.381767 -2.871232
2006-12-22 07:40:43 51°13.735 2°55.707 16.6123 0.064988 0.381767 -2.871232
2006-12-22 07:40:48 51°13.732 2°55.705 16.6151 0.064988 0.381759 -2.871232
2006-12-22 07:40:53 51°13.73 2°55.702 16.6099 0.064988 0.381759 -2.871232
2006-12-22 07:40:59 51°13.728 2°55.699 16.609 0.064988 0.381751 -2.871232
2006-12-22 07:41:04 51°13.727 2°55.697 16.611 0.064988 0.381751 -2.871232
2006-12-22 07:41:08 51°13.726 2°55.696 16.6139 0.064988 0.381743 -2.871232
2006-12-22 07:41:13 51°13.726 2°55.695 16.6176 0.064988 0.381734 -2.871232
2006-12-22 07:41:18 51°13.727 2°55.695 16.6199 0.064988 0.381726 -2.871232
2006-12-22 07:41:24 51°13.73 2°55.696 16.6238 0.064988 0.381726 -2.871232
2006-12-22 07:41:29 51°13.733 2°55.696 16.627 0.064988 0.381726 -2.871232
2006-12-22 07:41:33 51°13.737 2°55.695 16.6205 0.064988 0.381726 -2.871232
2006-12-22 07:41:38 51°13.742 2°55.694 16.6249 0.064988 0.381734 -2.871232
2006-12-22 07:41:43 51°13.747 2°55.691 16.6366 0.064988 0.381743 -2.871232
2006-12-22 07:41:48 51°13.752 2°55.688 16.6464 0.064988 0.381751 -2.871232
2006-12-22 07:41:53 51°13.759 2°55.685 16.642 0.064988 0.381751 -2.871232
2006-12-22 07:41:58 51°13.765 2°55.68 16.6466 0.064988 0.381751 -2.871232
2006-12-22 07:42:03 51°13.772 2°55.676 16.6474 0.064988 0.381751 -2.871232
2006-12-22 07:42:09 51°13.782 2°55.67 16.6491 0.064988 0.381751 -2.871232
2006-12-22 07:42:13 51°13.788 2°55.665 16.6474 0.064988 0.381743 -2.871232
2006-12-22 07:42:18 51°13.797 2°55.66 16.6488 0.064988 0.381743 -2.871232
2006-12-22 07:42:23 51°13.806 2°55.653 16.6448 0.064988 0.381743 -2.871232
2006-12-22 07:42:28 51°13.815 2°55.647 16.6435 0.064988 0.381734 -2.871232
2006-12-22 07:42:33 51°13.825 2°55.64 16.6436 0.064988 0.381734 -2.871232
2006-12-22 07:42:38 51°13.835 2°55.632 16.6419 0.064988 0.381726 -2.871232
2006-12-22 07:42:43 51°13.845 2°55.625 16.6406 0.064988 0.381734 -2.871232
2006-12-22 07:42:48 51°13.855 2°55.617 16.6377 0.064988 0.381726 -2.871232
2006-12-22 07:42:53 51°13.865 2°55.609 16.6383 0.064988 0.381726 -2.871232
2006-12-22 07:42:58 51°13.876 2°55.601 16.6405 0.064988 0.381726 -2.871232
2006-12-22 07:43:03 51°13.887 2°55.593 16.6359 0.064988 0.381726 -2.871232
2006-12-22 07:43:08 51°13.898 2°55.585 16.6365 0.064988 0.381726 -2.871232
2006-12-22 07:43:13 51°13.909 2°55.576 16.6341 0.064988 0.381726 -2.871232
2006-12-22 07:43:18 51°13.921 2°55.568 16.6346 0.064988 0.381726 -2.871232
2006-12-22 07:43:23 51°13.932 2°55.56 16.6364 0.064988 0.381726 -2.871232
2006-12-22 07:43:28 51°13.944 2°55.552 16.6374 0.064988 0.381726 -2.871232
2006-12-22 07:43:33 51°13.956 2°55.544 16.6323 0.064988 0.381726 -2.871232
2006-12-22 07:43:38 51°13.967 2°55.535 16.6369 0.064988 0.381726 -2.871232
2006-12-22 07:43:43 51°13.979 2°55.527 16.6342 0.064988 0.381726 -2.871232
2006-12-22 07:43:48 51°13.991 2°55.519 16.6338 0.064988 0.381734 -2.871232
2006-12-22 07:43:53 51°14.002 2°55.511 16.6332 0.064988 0.381734 -2.871232
2006-12-22 07:43:58 51°14.012 2°55.503 16.6349 0.064988 0.381734 -2.871232
2006-12-22 07:44:04 51°14.025 2°55.494 16.6363 0.064988 0.381734 -2.871232
2006-12-22 07:44:09 51°14.035 2°55.487 16.6367 0.064988 0.381734 -2.871232
2006-12-22 07:44:13 51°14.043 2°55.481 16.64 0.064988 0.381734 -2.871232
2006-12-22 07:44:18 51°14.054 2°55.474 16.6365 0.064988 0.381734 -2.871232
2006-12-22 07:44:23 51°14.064 2°55.466 16.6391 0.064988 0.381734 -2.871232
2006-12-22 07:44:29 51°14.076 2°55.457 16.6371 0.064988 0.381734 -2.871232
2006-12-22 07:44:33 51°14.085 2°55.451 16.6381 0.064988 0.381734 -2.871232
2006-12-22 07:44:38 51°14.095 2°55.443 16.6356 0.064988 0.381734 -2.871232
2006-12-22 07:44:43 51°14.105 2°55.435 16.635 0.064988 0.381734 -2.871232
2006-12-22 07:44:48 51°14.116 2°55.427 16.6339 0.064988 0.381726 -2.871232
2006-12-22 07:44:53 51°14.127 2°55.418 16.636 0.064988 0.381726 -2.871232
2006-12-22 07:44:58 51°14.137 2°55.41 16.6378 0.064988 0.381726 -2.871232
2006-12-22 07:45:04 51°14.15 2°55.4 16.6354 0.064988 0.381726 -2.871232
2006-12-22 07:45:08 51°14.158 2°55.393 16.6341 0.064988 0.381726 -2.871232
2006-12-22 07:45:13 51°14.169 2°55.384 16.6382 0.064988 0.381726 -2.871232
2006-12-22 07:45:18 51°14.179 2°55.374 16.6385 0.064988 0.381734 -2.871232
2006-12-22 07:45:24 51°14.191 2°55.362 16.6344 0.064988 0.381734 -2.871232
2006-12-22 07:45:28 51°14.198 2°55.353 16.6359 0.064988 0.381734 -2.871232
2006-12-22 07:45:33 51°14.208 2°55.342 16.6362 0.064988 0.381734 -2.871232
2006-12-22 07:45:39 51°14.219 2°55.328 16.6357 0.064988 0.381734 -2.871232
2006-12-22 07:45:44 51°14.229 2°55.316 16.6356 0.064988 0.381734 -2.871232
2006-12-22 07:45:49 51°14.238 2°55.304 16.6384 0.064988 0.381734 -2.871232
2006-12-22 07:45:53 51°14.244 2°55.294 16.6383 0.064988 0.381734 -2.871232
2006-12-22 07:45:59 51°14.254 2°55.278 16.6348 0.064988 0.381726 -2.871232
2006-12-22 07:46:03 51°14.261 2°55.266 16.6356 0.064988 0.381726 -2.871232
2006-12-22 07:46:09 51°14.271 2°55.249 16.6335 0.064988 0.381726 -2.871232
2006-12-22 07:46:13 51°14.277 2°55.237 16.6342 0.064988 0.381718 -2.871232
2006-12-22 07:46:18 51°14.285 2°55.221 16.6334 0.064988 0.381718 -2.871232
2006-12-22 07:46:24 51°14.295 2°55.201 16.6315 0.064988 0.381718 -2.871232
2006-12-22 07:46:29 51°14.304 2°55.184 16.6358 0.064988 0.38171 -2.871232
2006-12-22 07:46:33 51°14.31 2°55.17 16.6294 0.064988 0.38171 -2.871232
2006-12-22 07:46:38 51°14.318 2°55.152 16.6195 0.064988 0.38171 -2.871232
2006-12-22 07:46:43 51°14.326 2°55.134 16.5846 0.064988 0.38171 -2.871232
2006-12-22 07:46:48 51°14.335 2°55.116 16.5582 0.064988 0.38171 -2.871232
2006-12-22 07:46:53 51°14.343 2°55.097 16.5345 0.064988 0.38171 -2.871232
2006-12-22 07:46:58 51°14.351 2°55.077 16.4584 0.064988 0.381702 -2.871232
2006-12-22 07:47:03 51°14.36 2°55.058 16.4891 0.064988 0.381702 -2.871232
2006-12-22 07:47:07 51°14.366 2°55.042 16.5095 0.064988 0.38171 -2.871232
2006-12-22 07:47:13 51°14.375 2°55.017 16.5363 0.064988 0.38171 -2.871232
2006-12-22 07:47:18 51°14.382 2°54.995 16.5237 0.064988 0.38171 -2.871232
2006-12-22 07:47:23 51°14.389 2°54.972 16.5475 0.064988 0.38171 -2.871232
2006-12-22 07:47:28 51°14.395 2°54.949 16.5564 0.064988 0.381718 -2.871232
2006-12-22 07:47:33 51°14.401 2°54.924 16.5595 0.064988 0.381718 -2.871232
2006-12-22 07:47:38 51°14.406 2°54.899 16.5665 0.064988 0.38171 -2.871232
2006-12-22 07:47:43 51°14.411 2°54.874 16.5554 0.064988 0.38171 -2.871232
2006-12-22 07:47:48 51°14.415 2°54.848 16.5141 0.064988 0.381702 -2.871232
2006-12-22 07:47:53 51°14.419 2°54.821 16.501 0.064988 0.381702 -2.871232
2006-12-22 07:47:58 51°14.422 2°54.794 16.4018 0.064988 0.381702 -2.871232
2006-12-22 07:48:03 51°14.425 2°54.767 16.3946 0.064988 0.381702 -2.871232
2006-12-22 07:48:08 51°14.427 2°54.739 16.394 0.064988 0.38171 -2.871232
2006-12-22 07:48:13 51°14.43 2°54.711 16.386 0.064988 0.381702 -2.871232
2006-12-22 07:48:18 51°14.432 2°54.683 16.4063 0.064988 0.381702 -2.871232
2006-12-22 07:48:23 51°14.433 2°54.654 16.3658 0.064988 0.381702 -2.871232
2006-12-22 07:48:28 51°14.435 2°54.625 16.3397 0.064988 0.381702 -2.871232
2006-12-22 07:48:33 51°14.435 2°54.595 16.343 0.064988 0.381702 -2.871232
2006-12-22 07:48:38 51°14.436 2°54.566 16.3716 0.064988 0.381693 -2.871232
2006-12-22 07:48:43 51°14.435 2°54.536 16.3335 0.064988 0.381702 -2.871232
2006-12-22 07:48:48 51°14.435 2°54.506 16.4023 0.064988 0.381693 -2.871232
2006-12-22 07:48:53 51°14.432 2°54.476 16.4392 0.064988 0.38171 -2.871232
2006-12-22 07:48:58 51°14.428 2°54.446 16.4732 0.064988 0.38171 -2.871232
2006-12-22 07:49:03 51°14.422 2°54.417 16.476 0.064988 0.38171 -2.871232
2006-12-22 07:49:08 51°14.415 2°54.388 16.4934 0.064988 0.38171 -2.871232
2006-12-22 07:49:13 51°14.407 2°54.36 16.474 0.064988 0.38171 -2.871232
2006-12-22 07:49:18 51°14.399 2°54.333 16.3549 0.064988 0.381702 -2.871232
2006-12-22 07:49:23 51°14.39 2°54.306 16.3199 0.064988 0.381702 -2.871232
2006-12-22 07:49:28 51°14.38 2°54.279 16.2972 0.064988 0.381693 -2.871232
2006-12-22 07:49:33 51°14.37 2°54.253 16.2831 0.064988 0.381693 -2.871232
2006-12-22 07:49:38 51°14.36 2°54.227 16.173 0.064988 0.381693 -2.871232
2006-12-22 07:49:43 51°14.349 2°54.2 16.2597 0.064988 0.381693 -2.871232
2006-12-22 07:49:48 51°14.339 2°54.174 16.2735 0.064988 0.381685 -2.871232
2006-12-22 07:49:53 51°14.328 2°54.148 16.2712 0.064988 0.381685 -2.871232
2006-12-22 07:49:58 51°14.318 2°54.122 16.1682 0.064988 0.381677 -2.871232
2006-12-22 07:50:03 51°14.308 2°54.096 16.0828 0.064988 0.381677 -2.871232
2006-12-22 07:50:08 51°14.298 2°54.068 16.0769 0.064988 0.381677 -2.871232
2006-12-22 07:50:13 51°14.29 2°54.04 16.2159 0.064988 0.381669 -2.871232
2006-12-22 07:50:18 51°14.282 2°54.012 16.2114 0.06509 0.382294 -2.871232
2006-12-22 07:50:23 51°14.274 2°53.983 16.2238 0.064988 0.381677 -2.871232
2006-12-22 07:50:28 51°14.268 2°53.954 16.3102 0.064988 0.381677 -2.871232
2006-12-22 07:50:33 51°14.261 2°53.925 16.429 0.064988 0.381677 -2.871232
2006-12-22 07:50:38 51°14.255 2°53.895 16.386 0.064988 0.381677 -2.871232
2006-12-22 07:50:43 51°14.249 2°53.865 16.4184 0.064988 0.381685 -2.871232
2006-12-22 07:50:48 51°14.243 2°53.835 16.4033 0.064988 0.381677 -2.871232
2006-12-22 07:50:53 51°14.237 2°53.805 16.3802 0.064988 0.381677 -2.871232
2006-12-22 07:50:58 51°14.231 2°53.775 16.4625 0.064988 0.381677 -2.871232
2006-12-22 07:51:03 51°14.225 2°53.745 16.464 0.064988 0.381677 -2.871232
2006-12-22 07:51:08 51°14.218 2°53.716 16.455 0.064988 0.381685 -2.871232
2006-12-22 07:51:13 51°14.21 2°53.687 16.437 0.064988 0.381685 -2.871232
2006-12-22 07:51:18 51°14.201 2°53.658 16.4272 0.064988 0.381685 -2.871232
2006-12-22 07:51:23 51°14.193 2°53.629 16.3997 0.064988 0.381685 -2.871232
2006-12-22 07:51:28 51°14.183 2°53.601 16.3739 0.064988 0.381677 -2.871232
2006-12-22 07:51:33 51°14.174 2°53.572 16.3897 0.064988 0.381677 -2.871232
2006-12-22 07:51:38 51°14.165 2°53.544 16.3271 0.064988 0.381685 -2.871232
2006-12-22 07:51:43 51°14.155 2°53.516 16.3437 0.064988 0.381677 -2.871232
2006-12-22 07:51:48 51°14.146 2°53.487 16.3401 0.064988 0.381669 -2.871232
2006-12-22 07:51:53 51°14.137 2°53.459 16.3052 0.064988 0.381677 -2.871232
2006-12-22 07:51:58 51°14.129 2°53.429 16.4125 0.06509 0.382302 -2.871232
2006-12-22 07:52:03 51°14.12 2°53.4 16.3583 0.06509 0.382302 -2.871232
2006-12-22 07:52:08 51°14.112 2°53.37 16.384 0.064988 0.381677 -2.871232
2006-12-22 07:52:13 51°14.104 2°53.341 16.3759 0.064988 0.381677 -2.871232
2006-12-22 07:52:18 51°14.097 2°53.311 16.3415 0.064988 0.381677 -2.871232
2006-12-22 07:52:23 51°14.09 2°53.28 16.4306 0.064988 0.381677 -2.871232
2006-12-22 07:52:28 51°14.083 2°53.25 16.4608 0.064988 0.381685 -2.871232
2006-12-22 07:52:33 51°14.076 2°53.22 16.4156 0.064988 0.381685 -2.871232
2006-12-22 07:52:38 51°14.069 2°53.189 16.4431 0.064988 0.381677 -2.871232
2006-12-22 07:52:43 51°14.061 2°53.159 16.4283 0.064988 0.381685 -2.871232
2006-12-22 07:52:48 51°14.052 2°53.13 16.4193 0.064988 0.381685 -2.871232
2006-12-22 07:52:53 51°14.044 2°53.1 16.3979 0.064988 0.381677 -2.871232
2006-12-22 07:52:58 51°14.035 2°53.071 16.3454 0.064988 0.381685 -2.871232
2006-12-22 07:53:03 51°14.026 2°53.041 16.4071 0.064988 0.381685 -2.871232
2006-12-22 07:53:08 51°14.017 2°53.011 16.3441 0.064988 0.381677 -2.871232
2006-12-22 07:53:13 51°14.009 2°52.981 16.3541 0.064988 0.381677 -2.871232
2006-12-22 07:53:18 51°14 2°52.951 16.3872 0.064988 0.381669 -2.871232
2006-12-22 07:53:23 51°13.992 2°52.922 16.395 0.064988 0.381669 -2.871232
2006-12-22 07:53:28 51°13.984 2°52.891 16.4033 0.064988 0.381669 -2.871232
2006-12-22 07:53:33 51°13.975 2°52.861 16.3913 0.064988 0.381669 -2.871232
2006-12-22 07:53:38 51°13.968 2°52.83 16.4037 0.064988 0.381661 -2.871232
2006-12-22 07:53:43 51°13.959 2°52.8 16.3905 0.064988 0.381669 -2.871232
2006-12-22 07:53:47 51°13.953 2°52.776 16.4254 0.064988 0.381661 -2.871232
2006-12-22 07:53:53 51°13.943 2°52.74 16.4046 0.064988 0.381669 -2.871232
2006-12-22 07:53:58 51°13.934 2°52.71 16.3816 0.064988 0.381661 -2.871232
2006-12-22 07:54:03 51°13.926 2°52.68 16.3401 0.064988 0.381661 -2.871232
2006-12-22 07:54:08 51°13.917 2°52.649 16.3741 0.064988 0.381661 -2.871232
2006-12-22 07:54:13 51°13.908 2°52.62 16.3742 0.064988 0.381669 -2.871232
2006-12-22 07:54:18 51°13.899 2°52.59 16.3722 0.064988 0.381661 -2.871232
2006-12-22 07:54:23 51°13.89 2°52.56 16.3787 0.064988 0.381661 -2.871232
2006-12-22 07:54:28 51°13.881 2°52.53 16.3118 0.064988 0.381661 -2.871232
2006-12-22 07:54:33 51°13.872 2°52.5 16.3422 0.064988 0.381661 -2.871232
2006-12-22 07:54:38 51°13.863 2°52.47 16.3577 0.064988 0.381661 -2.871232
2006-12-22 07:54:43 51°13.854 2°52.44 16.3716 0.064988 0.381661 -2.871232
2006-12-22 07:54:48 51°13.845 2°52.41 16.376 0.064988 0.381661 -2.871232
2006-12-22 07:54:53 51°13.836 2°52.38 16.3789 0.064988 0.381661 -2.871232
2006-12-22 07:54:58 51°13.827 2°52.35 16.3868 0.064988 0.381652 -2.871232
2006-12-22 07:55:03 51°13.818 2°52.321 16.3903 0.064988 0.381652 -2.871232
2006-12-22 07:55:08 51°13.809 2°52.291 16.3856 0.064988 0.381661 -2.871232
2006-12-22 07:55:13 51°13.8 2°52.261 16.3805 0.064988 0.381661 -2.871232
2006-12-22 07:55:18 51°13.791 2°52.231 16.3689 0.064988 0.381661 -2.871232
2006-12-22 07:55:23 51°13.782 2°52.202 16.3631 0.064988 0.381661 -2.871232
2006-12-22 07:55:28 51°13.773 2°52.172 16.3656 0.064988 0.381661 -2.871232
2006-12-22 07:55:33 51°13.764 2°52.143 16.3587 0.064988 0.381661 -2.871232
2006-12-22 07:55:38 51°13.755 2°52.113 16.3625 0.064988 0.381652 -2.871232
2006-12-22 07:55:43 51°13.745 2°52.083 16.3247 0.064988 0.381661 -2.871232
2006-12-22 07:55:48 51°13.737 2°52.053 16.3736 0.064988 0.381652 -2.871232
2006-12-22 07:55:53 51°13.727 2°52.024 16.3478 0.064988 0.381652 -2.871232
2006-12-22 07:55:58 51°13.718 2°51.994 16.3622 0.064988 0.381652 -2.871232
2006-12-22 07:56:03 51°13.708 2°51.965 16.358 0.064988 0.381652 -2.871232
2006-12-22 07:56:08 51°13.699 2°51.935 16.3396 0.064988 0.381652 -2.871232
2006-12-22 07:56:13 51°13.689 2°51.906 16.3176 0.064988 0.381652 -2.871232
2006-12-22 07:56:18 51°13.68 2°51.876 16.3434 0.064988 0.381644 -2.871232
2006-12-22 07:56:23 51°13.671 2°51.847 16.3711 0.064988 0.381652 -2.871232
2006-12-22 07:56:28 51°13.662 2°51.817 16.3596 0.064988 0.381652 -2.871232
2006-12-22 07:56:33 51°13.652 2°51.788 16.3734 0.064988 0.381652 -2.871232
2006-12-22 07:56:38 51°13.643 2°51.758 16.3386 0.064988 0.381652 -2.871232
2006-12-22 07:56:43 51°13.634 2°51.728 16.3828 0.064988 0.381644 -2.871232
2006-12-22 07:56:48 51°13.625 2°51.699 16.3418 0.064988 0.381652 -2.871232
2006-12-22 07:56:53 51°13.616 2°51.669 16.3742 0.064988 0.381652 -2.871232
2006-12-22 07:56:58 51°13.607 2°51.639 16.3691 0.064988 0.381652 -2.871232
2006-12-22 07:57:03 51°13.597 2°51.609 16.3716 0.064988 0.381652 -2.871232
2006-12-22 07:57:08 51°13.588 2°51.579 16.3878 0.064988 0.381652 -2.871232
2006-12-22 07:57:13 51°13.579 2°51.55 16.3877 0.064988 0.381652 -2.871232
2006-12-22 07:57:18 51°13.569 2°51.521 16.4063 0.064988 0.381644 -2.871232
2006-12-22 07:57:23 51°13.559 2°51.492 16.3672 0.064988 0.381652 -2.871232
2006-12-22 07:57:28 51°13.548 2°51.463 16.384 0.064988 0.381652 -2.871232
2006-12-22 07:57:33 51°13.538 2°51.435 16.3831 0.064988 0.381652 -2.871232
2006-12-22 07:57:38 51°13.527 2°51.406 16.3744 0.064988 0.381652 -2.871232
2006-12-22 07:57:43 51°13.516 2°51.378 16.3809 0.064988 0.381644 -2.871232
2006-12-22 07:57:48 51°13.505 2°51.35 16.3417 0.064988 0.381644 -2.871232
2006-12-22 07:57:53 51°13.494 2°51.321 16.366 0.064988 0.381644 -2.871232
2006-12-22 07:57:58 51°13.483 2°51.293 16.3643 0.064988 0.381644 -2.871232
2006-12-22 07:58:03 51°13.473 2°51.264 16.3661 0.064988 0.381644 -2.871232
2006-12-22 07:58:08 51°13.462 2°51.235 16.3609 0.064988 0.381644 -2.871232
2006-12-22 07:58:13 51°13.451 2°51.206 16.3984 0.064988 0.381644 -2.871232
2006-12-22 07:58:18 51°13.44 2°51.178 16.3078 0.064988 0.381652 -2.871232
2006-12-22 07:58:23 51°13.43 2°51.149 16.3625 0.064988 0.381636 -2.871232
2006-12-22 07:58:28 51°13.419 2°51.12 16.3683 0.064988 0.381652 -2.871232
2006-12-22 07:58:33 51°13.409 2°51.091 16.3616 0.064988 0.381652 -2.871232
2006-12-22 07:58:38 51°13.398 2°51.062 16.376 0.064988 0.381644 -2.871232
2006-12-22 07:58:43 51°13.388 2°51.033 16.3575 0.064988 0.381644 -2.871232
2006-12-22 07:58:48 51°13.377 2°51.004 16.3883 0.064988 0.381644 -2.871232
2006-12-22 07:58:53 51°13.366 2°50.976 16.3532 0.064988 0.381644 -2.871232
2006-12-22 07:58:58 51°13.356 2°50.946 16.3879 0.064988 0.381644 -2.871232
2006-12-22 07:59:03 51°13.345 2°50.918 16.3851 0.064988 0.381644 -2.871232
2006-12-22 07:59:08 51°13.335 2°50.888 16.399 0.064988 0.381636 -2.871232
2006-12-22 07:59:13 51°13.324 2°50.859 16.3993 0.064988 0.381636 -2.871232
2006-12-22 07:59:18 51°13.314 2°50.83 16.3632 0.064988 0.381636 -2.871232
2006-12-22 07:59:23 51°13.303 2°50.801 16.3788 0.064988 0.381636 -2.871232
2006-12-22 07:59:28 51°13.292 2°50.772 16.3902 0.064988 0.381644 -2.871232
2006-12-22 07:59:33 51°13.281 2°50.744 16.3959 0.064988 0.381644 -2.871232
2006-12-22 07:59:38 51°13.27 2°50.715 16.3827 0.064988 0.381644 -2.871232
2006-12-22 07:59:43 51°13.259 2°50.687 16.3923 0.064988 0.381636 -2.871232
2006-12-22 07:59:48 51°13.248 2°50.658 16.3896 0.064988 0.381636 -2.871232
2006-12-22 07:59:53 51°13.236 2°50.63 16.3754 0.064988 0.381644 -2.871232
2006-12-22 07:59:58 51°13.225 2°50.602 16.3644 0.064988 0.381636 -2.871232
2006-12-22 08:00:03 51°13.214 2°50.574 16.3569 0.064988 0.381636 -2.871232
2006-12-22 08:00:08 51°13.203 2°50.545 16.374 0.064988 0.381636 -2.871232
2006-12-22 08:00:13 51°13.192 2°50.516 16.3678 0.064988 0.381636 -2.871232
2006-12-22 08:00:18 51°13.181 2°50.488 16.3783 0.064988 0.381636 -2.871232
2006-12-22 08:00:23 51°13.17 2°50.459 16.3797 0.064988 0.381636 -2.871232
2006-12-22 08:00:28 51°13.159 2°50.431 16.3812 0.064988 0.381636 -2.871232
2006-12-22 08:00:33 51°13.147 2°50.403 16.3879 0.064988 0.381636 -2.871232
2006-12-22 08:00:38 51°13.136 2°50.374 16.3918 0.064988 0.381636 -2.871232
2006-12-22 08:00:43 51°13.125 2°50.346 16.3904 0.064988 0.381636 -2.871232
2006-12-22 08:00:48 51°13.114 2°50.318 16.4026 0.064988 0.381636 -2.871232
2006-12-22 08:00:53 51°13.103 2°50.289 16.3914 0.064988 0.381636 -2.871232
2006-12-22 08:00:58 51°13.092 2°50.261 16.4012 0.06509 0.382261 -2.871232
2006-12-22 08:01:03 51°13.081 2°50.233 16.4054 0.06509 0.382261 -2.871232
2006-12-22 08:01:08 51°13.069 2°50.205 16.4026 0.064988 0.381636 -2.871232
2006-12-22 08:01:13 51°13.058 2°50.176 16.4172 0.064988 0.381636 -2.871232
2006-12-22 08:01:18 51°13.047 2°50.148 16.388 0.064988 0.381636 -2.871232
2006-12-22 08:01:23 51°13.036 2°50.12 16.3899 0.064988 0.381636 -2.871232
2006-12-22 08:01:28 51°13.025 2°50.092 16.3452 0.064988 0.381636 -2.871232
2006-12-22 08:01:33 51°13.014 2°50.064 16.3924 0.064988 0.381636 -2.871232
2006-12-22 08:01:38 51°13.003 2°50.036 16.3741 0.064988 0.381636 -2.871232
2006-12-22 08:01:43 51°12.992 2°50.008 16.3849 0.064988 0.381636 -2.871232
2006-12-22 08:01:48 51°12.981 2°49.98 16.3552 0.064988 0.381636 -2.871232
2006-12-22 08:01:53 51°12.97 2°49.951 16.3631 0.064988 0.381628 -2.871232
2006-12-22 08:01:58 51°12.959 2°49.923 16.3801 0.064988 0.381636 -2.871232
2006-12-22 08:02:03 51°12.948 2°49.895 16.3944 0.064988 0.381636 -2.871232
2006-12-22 08:02:08 51°12.936 2°49.866 16.3826 0.064988 0.381628 -2.871232
2006-12-22 08:02:13 51°12.925 2°49.838 16.3835 0.064988 0.381628 -2.871232
2006-12-22 08:02:18 51°12.914 2°49.81 16.3884 0.064988 0.381636 -2.871232
2006-12-22 08:02:23 51°12.903 2°49.781 16.3782 0.064988 0.381636 -2.871232
2006-12-22 08:02:28 51°12.892 2°49.753 16.3801 0.064988 0.381628 -2.871232
2006-12-22 08:02:33 51°12.881 2°49.725 16.3941 0.064988 0.381628 -2.871232
2006-12-22 08:02:38 51°12.87 2°49.697 16.3979 0.064988 0.381628 -2.871232
2006-12-22 08:02:43 51°12.859 2°49.668 16.3474 0.064988 0.381628 -2.871232
2006-12-22 08:02:48 51°12.848 2°49.64 16.4212 0.064988 0.381628 -2.871232
2006-12-22 08:02:53 51°12.836 2°49.612 16.3855 0.064988 0.381636 -2.871232
2006-12-22 08:02:58 51°12.825 2°49.583 16.4019 0.064988 0.381628 -2.871232
2006-12-22 08:03:03 51°12.814 2°49.555 16.3947 0.064988 0.381628 -2.871232
2006-12-22 08:03:07 51°12.805 2°49.532 16.3862 0.064988 0.381636 -2.871232
2006-12-22 08:03:13 51°12.791 2°49.498 16.3928 0.06509 0.382253 -2.871232
2006-12-22 08:03:18 51°12.78 2°49.47 16.403 0.064988 0.381636 -2.871232
2006-12-22 08:03:23 51°12.768 2°49.441 16.3938 0.064988 0.381628 -2.871232
2006-12-22 08:03:28 51°12.756 2°49.413 16.3844 0.064988 0.381628 -2.871232
2006-12-22 08:03:33 51°12.745 2°49.384 16.4016 0.064988 0.381628 -2.871232
2006-12-22 08:03:38 51°12.733 2°49.355 16.4016 0.064988 0.381628 -2.871232
2006-12-22 08:03:43 51°12.722 2°49.327 16.3713 0.064988 0.381628 -2.871232
2006-12-22 08:03:48 51°12.711 2°49.298 16.3565 0.064988 0.381628 -2.871232
2006-12-22 08:03:53 51°12.699 2°49.269 16.3073 0.064988 0.381628 -2.871232
2006-12-22 08:03:58 51°12.689 2°49.239 16.3813 0.064988 0.381628 -2.871232
2006-12-22 08:04:03 51°12.677 2°49.211 16.3337 0.064988 0.381628 -2.871232
2006-12-22 08:04:08 51°12.666 2°49.181 16.3909 0.064988 0.381628 -2.871232
2006-12-22 08:04:13 51°12.654 2°49.152 16.3808 0.064988 0.381628 -2.871232
2006-12-22 08:04:18 51°12.643 2°49.123 16.3764 0.064988 0.381628 -2.871232
2006-12-22 08:04:23 51°12.632 2°49.094 16.382 0.064988 0.381628 -2.871232
2006-12-22 08:04:28 51°12.621 2°49.065 16.392 0.064988 0.381628 -2.871232
2006-12-22 08:04:33 51°12.609 2°49.036 16.3857 0.064988 0.381628 -2.871232
2006-12-22 08:04:38 51°12.598 2°49.006 16.3996 0.064988 0.381628 -2.871232
2006-12-22 08:04:43 51°12.586 2°48.977 16.3575 0.064988 0.381628 -2.871232
2006-12-22 08:04:48 51°12.575 2°48.948 16.4016 0.064988 0.381619 -2.871232
2006-12-22 08:04:53 51°12.563 2°48.919 16.3864 0.064988 0.381619 -2.871232
2006-12-22 08:04:58 51°12.552 2°48.89 16.395 0.064988 0.381628 -2.871232
2006-12-22 08:05:03 51°12.541 2°48.861 16.4058 0.064988 0.381628 -2.871232
2006-12-22 08:05:08 51°12.529 2°48.832 16.4043 0.064988 0.381619 -2.871232
2006-12-22 08:05:13 51°12.518 2°48.803 16.3933 0.064988 0.381628 -2.871232
2006-12-22 08:05:18 51°12.506 2°48.773 16.3931 0.064988 0.381619 -2.871232
2006-12-22 08:05:23 51°12.495 2°48.745 16.394 0.064988 0.381619 -2.871232
2006-12-22 08:05:28 51°12.483 2°48.716 16.4037 0.064988 0.381619 -2.871232
2006-12-22 08:05:33 51°12.472 2°48.687 16.361 0.064988 0.381619 -2.871232
2006-12-22 08:05:38 51°12.461 2°48.658 16.4058 0.064988 0.381619 -2.871232
2006-12-22 08:05:43 51°12.449 2°48.629 16.3817 0.064988 0.381628 -2.871232
2006-12-22 08:05:48 51°12.438 2°48.6 16.3964 0.064988 0.381619 -2.871232
2006-12-22 08:05:53 51°12.426 2°48.571 16.372 0.064988 0.381619 -2.871232
2006-12-22 08:05:58 51°12.415 2°48.542 16.384 0.064988 0.381619 -2.871232
2006-12-22 08:06:03 51°12.404 2°48.512 16.3997 0.064988 0.381619 -2.871232
2006-12-22 08:06:08 51°12.393 2°48.483 16.4063 0.064988 0.381619 -2.871232
2006-12-22 08:06:13 51°12.382 2°48.454 16.4188 0.06509 0.382244 -2.871232
2006-12-22 08:06:18 51°12.37 2°48.425 16.4117 0.064988 0.381628 -2.871232
2006-12-22 08:06:23 51°12.359 2°48.396 16.4208 0.064988 0.381619 -2.871232
2006-12-22 08:06:28 51°12.348 2°48.367 16.4297 0.064988 0.381619 -2.871232
2006-12-22 08:06:33 51°12.336 2°48.338 16.4044 0.064988 0.381619 -2.871232
2006-12-22 08:06:38 51°12.325 2°48.309 16.4265 0.064988 0.381619 -2.871232
2006-12-22 08:06:43 51°12.314 2°48.28 16.4325 0.064988 0.381619 -2.871232
2006-12-22 08:06:48 51°12.302 2°48.251 16.4121 0.064988 0.381619 -2.871232
2006-12-22 08:06:53 51°12.291 2°48.223 16.4305 0.064988 0.381619 -2.871232
2006-12-22 08:06:58 51°12.279 2°48.194 16.4167 0.064988 0.381611 -2.871232
2006-12-22 08:07:03 51°12.268 2°48.165 16.4241 0.064988 0.381611 -2.871232
2006-12-22 08:07:08 51°12.257 2°48.136 16.4292 0.064988 0.381619 -2.871232
2006-12-22 08:07:13 51°12.245 2°48.108 16.4278 0.064988 0.381611 -2.871232
2006-12-22 08:07:18 51°12.234 2°48.079 16.4196 0.064988 0.381611 -2.871232
2006-12-22 08:07:23 51°12.223 2°48.05 16.4224 0.064988 0.381611 -2.871232
2006-12-22 08:07:28 51°12.211 2°48.021 16.4241 0.064988 0.381611 -2.871232
2006-12-22 08:07:33 51°12.2 2°47.992 16.3944 0.064988 0.381611 -2.871232
2006-12-22 08:07:38 51°12.189 2°47.963 16.4185 0.06509 0.382236 -2.871232
2006-12-22 08:07:43 51°12.177 2°47.934 16.4032 0.064988 0.381611 -2.871232
2006-12-22 08:07:48 51°12.167 2°47.905 16.4209 0.064988 0.381611 -2.871232
2006-12-22 08:07:53 51°12.155 2°47.876 16.4222 0.064988 0.381611 -2.871232
2006-12-22 08:07:58 51°12.144 2°47.847 16.4225 0.064988 0.381611 -2.871232
2006-12-22 08:08:03 51°12.133 2°47.818 16.4155 0.064988 0.381611 -2.871232
2006-12-22 08:08:08 51°12.122 2°47.788 16.42 0.064988 0.381611 -2.871232
2006-12-22 08:08:13 51°12.111 2°47.76 16.426 0.064988 0.381611 -2.871232
2006-12-22 08:08:18 51°12.1 2°47.73 16.4279 0.064988 0.381611 -2.871232
2006-12-22 08:08:23 51°12.089 2°47.701 16.4272 0.064988 0.381611 -2.871232
2006-12-22 08:08:28 51°12.078 2°47.672 16.4478 0.064988 0.381611 -2.871232
2006-12-22 08:08:33 51°12.067 2°47.643 16.4409 0.064988 0.381611 -2.871232
2006-12-22 08:08:38 51°12.056 2°47.614 16.4434 0.064988 0.381611 -2.871232
2006-12-22 08:08:43 51°12.045 2°47.585 16.4507 0.064988 0.381611 -2.871232
2006-12-22 08:08:48 51°12.033 2°47.556 16.3928 0.06509 0.382236 -2.871232
2006-12-22 08:08:53 51°12.022 2°47.527 16.4342 0.064988 0.381611 -2.871232
2006-12-22 08:08:58 51°12.011 2°47.498 16.4377 0.064988 0.381603 -2.871232
2006-12-22 08:09:03 51°12 2°47.469 16.4091 0.064988 0.381603 -2.871232
2006-12-22 08:09:08 51°11.989 2°47.44 16.4312 0.064988 0.381603 -2.871232
2006-12-22 08:09:13 51°11.978 2°47.411 16.4441 0.064988 0.381611 -2.871232
2006-12-22 08:09:18 51°11.967 2°47.381 16.4431 0.064988 0.381603 -2.871232
2006-12-22 08:09:23 51°11.956 2°47.352 16.4545 0.064988 0.381603 -2.871232
2006-12-22 08:09:28 51°11.945 2°47.323 16.4327 0.06509 0.382228 -2.871232
2006-12-22 08:09:33 51°11.934 2°47.294 16.4299 0.06509 0.382228 -2.871232
2006-12-22 08:09:38 51°11.923 2°47.265 16.4344 0.064988 0.381603 -2.871232
2006-12-22 08:09:43 51°11.911 2°47.236 16.4139 0.064988 0.381603 -2.871232
2006-12-22 08:09:48 51°11.901 2°47.207 16.4418 0.064988 0.381603 -2.871232
2006-12-22 08:09:53 51°11.89 2°47.178 16.4378 0.064988 0.381603 -2.871232
2006-12-22 08:09:58 51°11.879 2°47.149 16.4107 0.064988 0.381603 -2.871232
2006-12-22 08:10:03 51°11.868 2°47.12 16.433 0.064988 0.381603 -2.871232
2006-12-22 08:10:08 51°11.857 2°47.091 16.433 0.06509 0.382228 -2.871232
2006-12-22 08:10:13 51°11.846 2°47.062 16.4158 0.064988 0.381603 -2.871232
2006-12-22 08:10:18 51°11.835 2°47.033 16.42 0.064988 0.381603 -2.871232
2006-12-22 08:10:23 51°11.824 2°47.005 16.4162 0.064988 0.381603 -2.871232
2006-12-22 08:10:28 51°11.813 2°46.976 16.4023 0.064988 0.381603 -2.871232
2006-12-22 08:10:33 51°11.802 2°46.947 16.4294 0.064988 0.381603 -2.871232
2006-12-22 08:10:38 51°11.791 2°46.918 16.4285 0.064988 0.381603 -2.871232
2006-12-22 08:10:43 51°11.78 2°46.889 16.4496 0.064988 0.381595 -2.871232
2006-12-22 08:10:48 51°11.769 2°46.861 16.4295 0.064988 0.381603 -2.871232
2006-12-22 08:10:53 51°11.758 2°46.832 16.4469 0.064988 0.381595 -2.871232
2006-12-22 08:10:58 51°11.747 2°46.803 16.4157 0.064988 0.381603 -2.871232
2006-12-22 08:11:03 51°11.737 2°46.774 16.4385 0.064988 0.381603 -2.871232
2006-12-22 08:11:08 51°11.726 2°46.746 16.4393 0.064988 0.381595 -2.871232
2006-12-22 08:11:13 51°11.715 2°46.717 16.4572 0.064988 0.381595 -2.871232
2006-12-22 08:11:18 51°11.704 2°46.688 16.4502 0.064988 0.381595 -2.871232
2006-12-22 08:11:23 51°11.693 2°46.66 16.4574 0.064988 0.381603 -2.871232
2006-12-22 08:11:28 51°11.682 2°46.631 16.4571 0.06509 0.38222 -2.871232
2006-12-22 08:11:33 51°11.671 2°46.603 16.4218 0.06509 0.38222 -2.871232
2006-12-22 08:11:38 51°11.66 2°46.574 16.4232 0.064988 0.381595 -2.871232
2006-12-22 08:11:43 51°11.649 2°46.545 16.4351 0.06509 0.38222 -2.871232
2006-12-22 08:11:48 51°11.638 2°46.517 16.4406 0.064988 0.381595 -2.871232
2006-12-22 08:11:53 51°11.628 2°46.488 16.4534 0.06509 0.38222 -2.871232
2006-12-22 08:11:58 51°11.616 2°46.459 16.4581 0.064988 0.381595 -2.871232
2006-12-22 08:12:03 51°11.606 2°46.431 16.4625 0.064988 0.381595 -2.871232
2006-12-22 08:12:08 51°11.595 2°46.402 16.4489 0.064988 0.381595 -2.871232
2006-12-22 08:12:13 51°11.584 2°46.374 16.4603 0.064988 0.381595 -2.871232
2006-12-22 08:12:18 51°11.573 2°46.345 16.454 0.064988 0.381595 -2.871232
2006-12-22 08:12:23 51°11.562 2°46.317 16.4544 0.064988 0.381595 -2.871232
2006-12-22 08:12:28 51°11.551 2°46.288 16.4655 0.064988 0.381595 -2.871232
2006-12-22 08:12:33 51°11.54 2°46.26 16.455 0.064988 0.381595 -2.871232
2006-12-22 08:12:38 51°11.529 2°46.231 16.42 0.064988 0.381595 -2.871232
2006-12-22 08:12:43 51°11.519 2°46.202 16.4723 0.064988 0.381587 -2.871232
2006-12-22 08:12:48 51°11.508 2°46.175 16.4484 0.064988 0.381595 -2.871232
2006-12-22 08:12:53 51°11.497 2°46.146 16.4712 0.06509 0.38222 -2.871232
2006-12-22 08:12:58 51°11.486 2°46.118 16.4294 0.064988 0.381587 -2.871232
2006-12-22 08:13:03 51°11.475 2°46.089 16.4554 0.064988 0.381587 -2.871232
2006-12-22 08:13:08 51°11.464 2°46.061 16.4531 0.064988 0.381587 -2.871232
2006-12-22 08:13:13 51°11.454 2°46.032 16.4387 0.064988 0.381587 -2.871232
2006-12-22 08:13:18 51°11.445 2°46.003 16.4396 0.064988 0.381587 -2.871232
2006-12-22 08:13:23 51°11.436 2°45.973 16.4084 0.06509 0.382203 -2.871232
2006-12-22 08:13:28 51°11.427 2°45.942 16.5004 0.06509 0.382212 -2.871232
2006-12-22 08:13:33 51°11.419 2°45.912 16.4755 0.06509 0.382212 -2.871232
2006-12-22 08:13:38 51°11.411 2°45.882 16.4892 0.064988 0.381578 -2.871232
2006-12-22 08:13:43 51°11.403 2°45.852 16.4715 0.064988 0.381587 -2.871232
2006-12-22 08:13:48 51°11.395 2°45.821 16.4831 0.064988 0.381587 -2.871232
2006-12-22 08:13:53 51°11.388 2°45.79 16.4907 0.064988 0.381587 -2.871232
2006-12-22 08:13:58 51°11.38 2°45.759 16.4996 0.064988 0.381587 -2.871232
2006-12-22 08:14:03 51°11.372 2°45.729 16.4642 0.064988 0.381587 -2.871232
2006-12-22 08:14:08 51°11.364 2°45.698 16.4781 0.064988 0.381587 -2.871232
2006-12-22 08:14:13 51°11.356 2°45.667 16.45 0.064988 0.381578 -2.871232
2006-12-22 08:14:18 51°11.347 2°45.637 16.4769 0.064988 0.381578 -2.871232
2006-12-22 08:14:23 51°11.339 2°45.606 16.4512 0.064988 0.381578 -2.871232
2006-12-22 08:14:28 51°11.331 2°45.576 16.4561 0.06509 0.382203 -2.871232
2006-12-22 08:14:33 51°11.322 2°45.546 16.4745 0.06509 0.382203 -2.871232
2006-12-22 08:14:38 51°11.313 2°45.515 16.4644 0.06509 0.382203 -2.871232
2006-12-22 08:14:43 51°11.305 2°45.485 16.4594 0.064988 0.381578 -2.871232
2006-12-22 08:14:48 51°11.296 2°45.454 16.4434 0.064988 0.381578 -2.871232
2006-12-22 08:14:53 51°11.288 2°45.424 16.4268 0.06509 0.382203 -2.871232
2006-12-22 08:14:58 51°11.28 2°45.394 16.4905 0.064988 0.381578 -2.871232
2006-12-22 08:15:03 51°11.272 2°45.363 16.4423 0.064988 0.381578 -2.871232
2006-12-22 08:15:08 51°11.264 2°45.332 16.4036 0.064988 0.381578 -2.871232
2006-12-22 08:15:13 51°11.257 2°45.301 16.4657 0.064988 0.381578 -2.871232
2006-12-22 08:15:18 51°11.25 2°45.27 16.4571 0.064988 0.381578 -2.871232
2006-12-22 08:15:23 51°11.243 2°45.239 16.4998 0.064988 0.381578 -2.871232
2006-12-22 08:15:28 51°11.237 2°45.207 16.4913 0.064988 0.381578 -2.871232
2006-12-22 08:15:33 51°11.23 2°45.175 16.4548 0.064988 0.381578 -2.871232
2006-12-22 08:15:38 51°11.224 2°45.144 16.51 0.064988 0.38157 -2.871232
2006-12-22 08:15:43 51°11.218 2°45.112 16.4881 0.064988 0.381578 -2.871232
2006-12-22 08:15:48 51°11.212 2°45.08 16.5004 0.06509 0.382203 -2.871232
2006-12-22 08:15:53 51°11.206 2°45.049 16.484 0.064988 0.381578 -2.871232
2006-12-22 08:15:58 51°11.199 2°45.017 16.501 0.064988 0.381578 -2.871232
2006-12-22 08:16:03 51°11.193 2°44.985 16.4852 0.064988 0.381578 -2.871232
2006-12-22 08:16:08 51°11.187 2°44.954 16.4765 0.06509 0.382203 -2.871232
2006-12-22 08:16:13 51°11.18 2°44.922 16.4799 0.064988 0.381578 -2.871232
2006-12-22 08:16:18 51°11.174 2°44.89 16.487 0.064988 0.381578 -2.871232
2006-12-22 08:16:23 51°11.167 2°44.858 16.4943 0.064988 0.381578 -2.871232
2006-12-22 08:16:28 51°11.161 2°44.826 16.4827 0.06509 0.382195 -2.871232
2006-12-22 08:16:33 51°11.155 2°44.794 16.4664 0.06509 0.382195 -2.871232
2006-12-22 08:16:38 51°11.15 2°44.762 16.4885 0.064988 0.38157 -2.871232
2006-12-22 08:16:43 51°11.144 2°44.73 16.4863 0.064988 0.38157 -2.871232
2006-12-22 08:16:48 51°11.139 2°44.698 16.4833 0.06509 0.382195 -2.871232
2006-12-22 08:16:53 51°11.134 2°44.665 16.504 0.064988 0.38157 -2.871232
2006-12-22 08:16:58 51°11.128 2°44.633 16.4906 0.06509 0.382195 -2.871232
2006-12-22 08:17:03 51°11.123 2°44.601 16.5082 0.06509 0.382195 -2.871232
2006-12-22 08:17:08 51°11.118 2°44.569 16.5099 0.06509 0.382195 -2.871232
2006-12-22 08:17:13 51°11.112 2°44.536 16.5052 0.064988 0.38157 -2.871232
2006-12-22 08:17:18 51°11.107 2°44.504 16.4932 0.064988 0.38157 -2.871232
2006-12-22 08:17:23 51°11.102 2°44.472 16.4894 0.064988 0.381578 -2.871232
2006-12-22 08:17:28 51°11.096 2°44.44 16.4946 0.064988 0.38157 -2.871232
2006-12-22 08:17:33 51°11.09 2°44.407 16.4934 0.064988 0.38157 -2.871232
2006-12-22 08:17:38 51°11.085 2°44.375 16.49 0.064988 0.38157 -2.871232
2006-12-22 08:17:43 51°11.079 2°44.343 16.4913 0.064988 0.38157 -2.871232
2006-12-22 08:17:48 51°11.073 2°44.311 16.5026 0.064988 0.38157 -2.871232
2006-12-22 08:17:53 51°11.068 2°44.279 16.5064 0.064988 0.38157 -2.871232
2006-12-22 08:17:58 51°11.062 2°44.247 16.5098 0.064988 0.38157 -2.871232
2006-12-22 08:18:03 51°11.056 2°44.214 16.4947 0.064988 0.38157 -2.871232
2006-12-22 08:18:08 51°11.051 2°44.182 16.5103 0.064988 0.38157 -2.871232
2006-12-22 08:18:13 51°11.045 2°44.15 16.4891 0.064988 0.38157 -2.871232
2006-12-22 08:18:18 51°11.04 2°44.117 16.4948 0.064988 0.38157 -2.871232
2006-12-22 08:18:23 51°11.034 2°44.085 16.5125 0.064988 0.38157 -2.871232
2006-12-22 08:18:28 51°11.028 2°44.053 16.5067 0.064988 0.381562 -2.871232
2006-12-22 08:18:33 51°11.023 2°44.02 16.5168 0.064988 0.381562 -2.871232
2006-12-22 08:18:38 51°11.018 2°43.988 16.4933 0.064988 0.38157 -2.871232
2006-12-22 08:18:43 51°11.013 2°43.956 16.51 0.064988 0.38157 -2.871232
2006-12-22 08:18:48 51°11.007 2°43.923 16.5055 0.064988 0.381562 -2.871232
2006-12-22 08:18:53 51°11.002 2°43.891 16.5031 0.064988 0.381562 -2.871232
2006-12-22 08:18:58 51°10.997 2°43.858 16.5095 0.064988 0.381562 -2.871232
2006-12-22 08:19:03 51°10.992 2°43.826 16.5105 0.064988 0.381562 -2.871232
2006-12-22 08:19:08 51°10.987 2°43.793 16.5121 0.064988 0.381562 -2.871232
2006-12-22 08:19:13 51°10.982 2°43.761 16.4992 0.06509 0.382187 -2.871232
2006-12-22 08:19:18 51°10.976 2°43.729 16.4922 0.064988 0.381562 -2.871232
2006-12-22 08:19:23 51°10.971 2°43.696 16.5096 0.064988 0.381562 -2.871232
2006-12-22 08:19:28 51°10.966 2°43.664 16.4594 0.064988 0.381562 -2.871232
2006-12-22 08:19:33 51°10.961 2°43.631 16.5169 0.064988 0.381562 -2.871232
2006-12-22 08:19:38 51°10.956 2°43.599 16.4901 0.064988 0.381562 -2.871232
2006-12-22 08:19:43 51°10.951 2°43.566 16.5044 0.064988 0.381554 -2.871232
2006-12-22 08:19:48 51°10.946 2°43.534 16.4954 0.064988 0.381562 -2.871232
2006-12-22 08:19:53 51°10.941 2°43.502 16.5014 0.06509 0.382187 -2.871232
2006-12-22 08:19:58 51°10.935 2°43.469 16.4711 0.064988 0.381562 -2.871232
2006-12-22 08:20:03 51°10.93 2°43.437 16.499 0.064988 0.381562 -2.871232
2006-12-22 08:20:08 51°10.924 2°43.405 16.4719 0.06509 0.382187 -2.871232
2006-12-22 08:20:13 51°10.919 2°43.372 16.4942 0.064988 0.381562 -2.871232
2006-12-22 08:20:18 51°10.914 2°43.34 16.4958 0.06509 0.382179 -2.871232
2006-12-22 08:20:23 51°10.909 2°43.307 16.4933 0.064988 0.381562 -2.871232
2006-12-22 08:20:28 51°10.904 2°43.275 16.5112 0.064988 0.381554 -2.871232
2006-12-22 08:20:33 51°10.899 2°43.242 16.5179 0.064988 0.381554 -2.871232
2006-12-22 08:20:38 51°10.894 2°43.209 16.5206 0.064988 0.381562 -2.871232
2006-12-22 08:20:43 51°10.889 2°43.177 16.5145 0.06509 0.382179 -2.871232
2006-12-22 08:20:48 51°10.883 2°43.145 16.5236 0.06509 0.382179 -2.871232
2006-12-22 08:20:53 51°10.878 2°43.112 16.5268 0.06509 0.382179 -2.871232
2006-12-22 08:20:58 51°10.873 2°43.08 16.5257 0.064988 0.381554 -2.871232
2006-12-22 08:21:03 51°10.868 2°43.047 16.5132 0.064988 0.381554 -2.871232
2006-12-22 08:21:08 51°10.863 2°43.015 16.4884 0.06509 0.382179 -2.871232
2006-12-22 08:21:13 51°10.857 2°42.982 16.5005 0.064988 0.381554 -2.871232
2006-12-22 08:21:18 51°10.852 2°42.95 16.5132 0.064988 0.381554 -2.871232
2006-12-22 08:21:23 51°10.847 2°42.918 16.499 0.064988 0.381554 -2.871232
2006-12-22 08:21:28 51°10.841 2°42.885 16.4962 0.064988 0.381554 -2.871232
2006-12-22 08:21:33 51°10.836 2°42.853 16.4921 0.064988 0.381554 -2.871232
2006-12-22 08:21:38 51°10.831 2°42.821 16.4771 0.064988 0.381554 -2.871232
2006-12-22 08:21:43 51°10.826 2°42.788 16.4923 0.064988 0.381554 -2.871232
2006-12-22 08:21:48 51°10.821 2°42.755 16.4861 0.064988 0.381554 -2.871232
2006-12-22 08:21:53 51°10.816 2°42.723 16.5135 0.064988 0.381554 -2.871232
2006-12-22 08:21:58 51°10.811 2°42.69 16.4623 0.064988 0.381554 -2.871232
2006-12-22 08:22:03 51°10.806 2°42.658 16.5089 0.064988 0.381554 -2.871232
2006-12-22 08:22:08 51°10.801 2°42.625 16.5027 0.064988 0.381546 -2.871232
2006-12-22 08:22:13 51°10.796 2°42.593 16.5133 0.064988 0.381546 -2.871232
2006-12-22 08:22:18 51°10.791 2°42.56 16.5233 0.06509 0.382179 -2.871232
2006-12-22 08:22:23 51°10.785 2°42.528 16.5168 0.064988 0.381546 -2.871232
2006-12-22 08:22:28 51°10.78 2°42.495 16.489 0.06509 0.382179 -2.871232
2006-12-22 08:22:33 51°10.775 2°42.462 16.5227 0.06509 0.382179 -2.871232
2006-12-22 08:22:38 51°10.77 2°42.43 16.5243 0.06509 0.38217 -2.871232
2006-12-22 08:22:43 51°10.765 2°42.397 16.5321 0.064988 0.381546 -2.871232
2006-12-22 08:22:48 51°10.76 2°42.365 16.5267 0.064988 0.381546 -2.871232
2006-12-22 08:22:53 51°10.755 2°42.332 16.5224 0.06509 0.38217 -2.871232
2006-12-22 08:22:58 51°10.75 2°42.3 16.537 0.064988 0.381546 -2.871232
2006-12-22 08:23:03 51°10.745 2°42.267 16.5398 0.064988 0.381546 -2.871232
2006-12-22 08:23:08 51°10.739 2°42.235 16.4952 0.06509 0.38217 -2.871232
2006-12-22 08:23:13 51°10.734 2°42.203 16.5105 0.06509 0.38217 -2.871232
2006-12-22 08:23:18 51°10.729 2°42.17 16.5138 0.064988 0.381546 -2.871232
2006-12-22 08:23:23 51°10.724 2°42.138 16.4946 0.064988 0.381546 -2.871232
2006-12-22 08:23:28 51°10.719 2°42.105 16.5145 0.064988 0.381537 -2.871232
2006-12-22 08:23:33 51°10.714 2°42.072 16.521 0.064988 0.381537 -2.871232
2006-12-22 08:23:38 51°10.709 2°42.04 16.5216 0.064988 0.381546 -2.871232
2006-12-22 08:23:43 51°10.704 2°42.007 16.5332 0.06509 0.38217 -2.871232
2006-12-22 08:23:48 51°10.699 2°41.975 16.5345 0.06509 0.38217 -2.871232
2006-12-22 08:23:53 51°10.694 2°41.943 16.5316 0.06509 0.38217 -2.871232
2006-12-22 08:23:58 51°10.689 2°41.91 16.5104 0.06509 0.382162 -2.871232
2006-12-22 08:24:03 51°10.684 2°41.878 16.5339 0.06509 0.382162 -2.871232
2006-12-22 08:24:08 51°10.679 2°41.845 16.5334 0.064988 0.381546 -2.871232
2006-12-22 08:24:13 51°10.674 2°41.813 16.5516 0.064988 0.381537 -2.871232
2006-12-22 08:24:18 51°10.669 2°41.78 16.5395 0.064988 0.381537 -2.871232
2006-12-22 08:24:23 51°10.664 2°41.748 16.5435 0.064988 0.381546 -2.871232
2006-12-22 08:24:28 51°10.659 2°41.715 16.5493 0.064988 0.381537 -2.871232
2006-12-22 08:24:33 51°10.653 2°41.683 16.5494 0.064988 0.381537 -2.871232
2006-12-22 08:24:38 51°10.648 2°41.65 16.5396 0.064988 0.381537 -2.871232
2006-12-22 08:24:43 51°10.643 2°41.618 16.5495 0.064988 0.381537 -2.871232
2006-12-22 08:24:48 51°10.637 2°41.586 16.5559 0.06509 0.382162 -2.871232
2006-12-22 08:24:53 51°10.632 2°41.553 16.5582 0.06509 0.382162 -2.871232
2006-12-22 08:24:58 51°10.627 2°41.521 16.5656 0.064988 0.381537 -2.871232
2006-12-22 08:25:03 51°10.622 2°41.488 16.5475 0.064988 0.381537 -2.871232
2006-12-22 08:25:08 51°10.617 2°41.456 16.5517 0.06509 0.382162 -2.871232
2006-12-22 08:25:13 51°10.611 2°41.423 16.555 0.064988 0.381537 -2.871232
2006-12-22 08:25:18 51°10.606 2°41.391 16.5622 0.064988 0.381537 -2.871232
2006-12-22 08:25:23 51°10.601 2°41.359 16.5615 0.06509 0.382154 -2.871232
2006-12-22 08:25:28 51°10.596 2°41.326 16.5584 0.06509 0.382154 -2.871232
2006-12-22 08:25:33 51°10.591 2°41.294 16.5278 0.06509 0.382154 -2.871232
2006-12-22 08:25:38 51°10.586 2°41.261 16.5629 0.064988 0.381529 -2.871232
2006-12-22 08:25:43 51°10.581 2°41.229 16.5424 0.06509 0.382162 -2.871232
2006-12-22 08:25:48 51°10.576 2°41.196 16.5552 0.064988 0.381529 -2.871232
2006-12-22 08:25:53 51°10.571 2°41.163 16.5684 0.064988 0.381529 -2.871232
2006-12-22 08:25:58 51°10.567 2°41.131 16.5662 0.064988 0.381529 -2.871232
2006-12-22 08:26:03 51°10.562 2°41.098 16.5648 0.064988 0.381529 -2.871232
2006-12-22 08:26:08 51°10.557 2°41.066 16.5692 0.06509 0.382154 -2.871232
2006-12-22 08:26:13 51°10.552 2°41.033 16.5396 0.064988 0.381529 -2.871232
2006-12-22 08:26:18 51°10.547 2°41.001 16.5584 0.064988 0.381529 -2.871232
2006-12-22 08:26:23 51°10.542 2°40.968 16.5584 0.06509 0.382154 -2.871232
2006-12-22 08:26:28 51°10.538 2°40.935 16.5614 0.064988 0.381529 -2.871232
2006-12-22 08:26:33 51°10.533 2°40.903 16.5622 0.064988 0.381529 -2.871232
2006-12-22 08:26:38 51°10.528 2°40.87 16.5656 0.064988 0.381529 -2.871232
2006-12-22 08:26:43 51°10.523 2°40.838 16.581 0.064988 0.381529 -2.871232
2006-12-22 08:26:48 51°10.518 2°40.805 16.5845 0.06509 0.382154 -2.871232
2006-12-22 08:26:53 51°10.513 2°40.772 16.5858 0.064988 0.381529 -2.871232
2006-12-22 08:26:58 51°10.509 2°40.74 16.5712 0.064988 0.381529 -2.871232
2006-12-22 08:27:03 51°10.503 2°40.707 16.5548 0.064988 0.381529 -2.871232
2006-12-22 08:27:08 51°10.498 2°40.675 16.5682 0.064988 0.381521 -2.871232
2006-12-22 08:27:13 51°10.493 2°40.642 16.5705 0.064988 0.381521 -2.871232
2006-12-22 08:27:18 51°10.488 2°40.61 16.5659 0.064988 0.381529 -2.871232
2006-12-22 08:27:23 51°10.484 2°40.577 16.5631 0.064988 0.381521 -2.871232
2006-12-22 08:27:28 51°10.479 2°40.544 16.5785 0.06509 0.382146 -2.871232
2006-12-22 08:27:33 51°10.474 2°40.512 16.5804 0.06509 0.382146 -2.871232
2006-12-22 08:27:38 51°10.469 2°40.479 16.5598 0.064988 0.381521 -2.871232
2006-12-22 08:27:43 51°10.464 2°40.446 16.5711 0.064988 0.381521 -2.871232
2006-12-22 08:27:48 51°10.459 2°40.414 16.556 0.06509 0.382154 -2.871232
2006-12-22 08:27:53 51°10.454 2°40.381 16.5729 0.064988 0.381521 -2.871232
2006-12-22 08:27:58 51°10.449 2°40.349 16.5609 0.06509 0.382146 -2.871232
2006-12-22 08:28:03 51°10.444 2°40.316 16.5676 0.06509 0.382146 -2.871232
2006-12-22 08:28:08 51°10.439 2°40.283 16.5716 0.06509 0.382146 -2.871232
2006-12-22 08:28:13 51°10.434 2°40.251 16.5858 0.064988 0.381521 -2.871232
2006-12-22 08:28:18 51°10.429 2°40.218 16.5861 0.06509 0.382146 -2.871232
2006-12-22 08:28:23 51°10.424 2°40.185 16.5844 0.06509 0.382146 -2.871232
2006-12-22 08:28:28 51°10.419 2°40.152 16.5828 0.06509 0.382146 -2.871232
2006-12-22 08:28:33 51°10.415 2°40.12 16.5762 0.06509 0.382146 -2.871232
2006-12-22 08:28:38 51°10.41 2°40.087 16.5771 0.06509 0.382146 -2.871232
2006-12-22 08:28:43 51°10.405 2°40.054 16.5981 0.064988 0.381513 -2.871232
2006-12-22 08:28:48 51°10.401 2°40.021 16.5916 0.06509 0.382138 -2.871232
2006-12-22 08:28:53 51°10.396 2°39.988 16.574 0.064988 0.381521 -2.871232
2006-12-22 08:28:58 51°10.392 2°39.956 16.5668 0.064988 0.381521 -2.871232
2006-12-22 08:29:03 51°10.387 2°39.923 16.5697 0.064988 0.381521 -2.871232
2006-12-22 08:29:08 51°10.382 2°39.89 16.5786 0.06509 0.382138 -2.871232
2006-12-22 08:29:13 51°10.378 2°39.857 16.5728 0.064988 0.381521 -2.871232
2006-12-22 08:29:18 51°10.373 2°39.824 16.598 0.064988 0.381521 -2.871232
2006-12-22 08:29:23 51°10.368 2°39.792 16.5861 0.064988 0.381521 -2.871232
2006-12-22 08:29:28 51°10.364 2°39.759 16.5964 0.06509 0.382138 -2.871232
2006-12-22 08:29:33 51°10.359 2°39.726 16.5837 0.06509 0.382138 -2.871232
2006-12-22 08:29:38 51°10.354 2°39.693 16.5971 0.06509 0.382138 -2.871232
2006-12-22 08:29:43 51°10.35 2°39.66 16.6056 0.06509 0.382138 -2.871232
2006-12-22 08:29:48 51°10.345 2°39.627 16.6004 0.06509 0.382138 -2.871232
2006-12-22 08:29:53 51°10.34 2°39.594 16.5894 0.064988 0.381513 -2.871232
2006-12-22 08:29:58 51°10.335 2°39.561 16.5622 0.06509 0.382138 -2.871232
2006-12-22 08:30:03 51°10.331 2°39.528 16.6051 0.06509 0.382138 -2.871232
2006-12-22 08:30:08 51°10.326 2°39.496 16.5907 0.064988 0.381513 -2.871232
2006-12-22 08:30:13 51°10.322 2°39.463 16.6088 0.06509 0.382129 -2.871232
2006-12-22 08:30:18 51°10.317 2°39.43 16.6063 0.064988 0.381513 -2.871232
2006-12-22 08:30:23 51°10.312 2°39.397 16.6211 0.06509 0.382138 -2.871232
2006-12-22 08:30:28 51°10.308 2°39.364 16.6049 0.06509 0.382138 -2.871232
2006-12-22 08:30:33 51°10.303 2°39.331 16.6308 0.06509 0.382138 -2.871232
2006-12-22 08:30:38 51°10.298 2°39.298 16.6001 0.064988 0.381513 -2.871232
2006-12-22 08:30:43 51°10.294 2°39.265 16.6195 0.06509 0.382129 -2.871232
2006-12-22 08:30:48 51°10.289 2°39.232 16.6057 0.064988 0.381505 -2.871232
2006-12-22 08:30:53 51°10.284 2°39.199 16.607 0.06509 0.382129 -2.871232
2006-12-22 08:30:58 51°10.279 2°39.166 16.6019 0.064988 0.381505 -2.871232
2006-12-22 08:31:03 51°10.275 2°39.133 16.6063 0.064988 0.381505 -2.871232
2006-12-22 08:31:08 51°10.27 2°39.1 16.612 0.064988 0.381505 -2.871232
2006-12-22 08:31:13 51°10.265 2°39.067 16.6136 0.06509 0.382129 -2.871232
2006-12-22 08:31:18 51°10.26 2°39.034 16.6154 0.064988 0.381505 -2.871232
2006-12-22 08:31:23 51°10.255 2°39.001 16.6113 0.06509 0.382129 -2.871232
2006-12-22 08:31:28 51°10.251 2°38.968 16.6136 0.064988 0.381505 -2.871232
2006-12-22 08:31:33 51°10.246 2°38.935 16.629 0.064988 0.381505 -2.871232
2006-12-22 08:31:38 51°10.241 2°38.902 16.6125 0.06509 0.382121 -2.871232
2006-12-22 08:31:43 51°10.236 2°38.869 16.6243 0.06509 0.382129 -2.871232
2006-12-22 08:31:48 51°10.231 2°38.836 16.6301 0.06509 0.382129 -2.871232
2006-12-22 08:31:53 51°10.227 2°38.803 16.6014 0.06509 0.382129 -2.871232
2006-12-22 08:31:58 51°10.222 2°38.77 16.6246 0.064988 0.381496 -2.871232
2006-12-22 08:32:03 51°10.218 2°38.737 16.6387 0.064988 0.381496 -2.871232
2006-12-22 08:32:08 51°10.213 2°38.704 16.585 0.06509 0.382129 -2.871232
2006-12-22 08:32:13 51°10.208 2°38.671 16.6391 0.06509 0.382121 -2.871232
2006-12-22 08:32:18 51°10.204 2°38.638 16.6283 0.06509 0.382121 -2.871232
2006-12-22 08:32:23 51°10.199 2°38.605 16.6338 0.064988 0.381496 -2.871232
2006-12-22 08:32:28 51°10.195 2°38.572 16.6351 0.064988 0.381496 -2.871232
2006-12-22 08:32:33 51°10.19 2°38.539 16.6228 0.064988 0.381496 -2.871232
2006-12-22 08:32:38 51°10.185 2°38.506 16.6406 0.064988 0.381496 -2.871232
2006-12-22 08:32:43 51°10.18 2°38.473 16.6369 0.06509 0.382121 -2.871232
2006-12-22 08:32:48 51°10.175 2°38.44 16.6298 0.064988 0.381496 -2.871232
2006-12-22 08:32:53 51°10.171 2°38.406 16.6257 0.06509 0.382113 -2.871232
2006-12-22 08:32:58 51°10.166 2°38.373 16.6521 0.064988 0.381496 -2.871232
2006-12-22 08:33:03 51°10.162 2°38.34 16.6583 0.064988 0.381496 -2.871232
2006-12-22 08:33:08 51°10.157 2°38.307 16.6531 0.06509 0.382121 -2.871232
2006-12-22 08:33:13 51°10.152 2°38.274 16.6421 0.064988 0.381496 -2.871232
2006-12-22 08:33:18 51°10.147 2°38.241 16.5875 0.06509 0.382121 -2.871232
2006-12-22 08:33:23 51°10.143 2°38.208 16.6308 0.064988 0.381496 -2.871232
2006-12-22 08:33:28 51°10.138 2°38.175 16.628 0.064988 0.381488 -2.871232
2006-12-22 08:33:33 51°10.134 2°38.142 16.6399 0.064988 0.381488 -2.871232
2006-12-22 08:33:38 51°10.129 2°38.109 16.6328 0.064988 0.381488 -2.871232
2006-12-22 08:33:43 51°10.125 2°38.076 16.6385 0.06509 0.382113 -2.871232
2006-12-22 08:33:48 51°10.122 2°38.043 16.6565 0.064988 0.381488 -2.871232
2006-12-22 08:33:53 51°10.117 2°38.01 16.6512 0.064988 0.381488 -2.871232
2006-12-22 08:33:58 51°10.113 2°37.976 16.6654 0.06509 0.382113 -2.871232
2006-12-22 08:34:03 51°10.11 2°37.943 16.6683 0.06509 0.382113 -2.871232
2006-12-22 08:34:08 51°10.105 2°37.91 16.6717 0.064988 0.381488 -2.871232
2006-12-22 08:34:13 51°10.101 2°37.877 16.6769 0.064988 0.381488 -2.871232
2006-12-22 08:34:18 51°10.097 2°37.844 16.6572 0.06509 0.382113 -2.871232
2006-12-22 08:34:23 51°10.093 2°37.811 16.6746 0.06509 0.382113 -2.871232
2006-12-22 08:34:28 51°10.089 2°37.778 16.6315 0.06509 0.382113 -2.871232
2006-12-22 08:34:33 51°10.086 2°37.745 16.6541 0.06509 0.382113 -2.871232
2006-12-22 08:34:38 51°10.082 2°37.712 16.6353 0.06509 0.382113 -2.871232
2006-12-22 08:34:43 51°10.078 2°37.678 16.6599 0.06509 0.382105 -2.871232
2006-12-22 08:34:48 51°10.074 2°37.645 16.6362 0.06509 0.382113 -2.871232
2006-12-22 08:34:53 51°10.071 2°37.612 16.6657 0.06509 0.382113 -2.871232
2006-12-22 08:34:58 51°10.067 2°37.579 16.6399 0.06509 0.382113 -2.871232
2006-12-22 08:35:03 51°10.063 2°37.546 16.6492 0.06509 0.382113 -2.871232
2006-12-22 08:35:08 51°10.059 2°37.513 16.671 0.06509 0.382113 -2.871232
2006-12-22 08:35:13 51°10.055 2°37.48 16.6744 0.06509 0.382113 -2.871232
2006-12-22 08:35:18 51°10.051 2°37.446 16.6901 0.06509 0.382105 -2.871232
2006-12-22 08:35:23 51°10.047 2°37.413 16.6851 0.06509 0.382105 -2.871232
2006-12-22 08:35:28 51°10.043 2°37.38 16.6747 0.064988 0.38148 -2.871232
2006-12-22 08:35:33 51°10.04 2°37.347 16.6741 0.064988 0.38148 -2.871232
2006-12-22 08:35:38 51°10.035 2°37.313 16.6667 0.06509 0.382113 -2.871232
2006-12-22 08:35:43 51°10.032 2°37.28 16.6687 0.06509 0.382105 -2.871232
2006-12-22 08:35:48 51°10.027 2°37.247 16.6757 0.06509 0.382105 -2.871232
2006-12-22 08:35:53 51°10.024 2°37.213 16.6785 0.064988 0.38148 -2.871232
2006-12-22 08:35:58 51°10.02 2°37.179 16.6859 0.06509 0.382105 -2.871232
2006-12-22 08:36:03 51°10.016 2°37.146 16.6804 0.06509 0.382105 -2.871232
2006-12-22 08:36:08 51°10.012 2°37.113 16.6825 0.064988 0.38148 -2.871232
2006-12-22 08:36:13 51°10.008 2°37.079 16.688 0.06509 0.382105 -2.871232
2006-12-22 08:36:18 51°10.004 2°37.046 16.6972 0.06509 0.382105 -2.871232
2006-12-22 08:36:23 51°10 2°37.012 16.6873 0.064988 0.38148 -2.871232
2006-12-22 08:36:28 51°9.996 2°36.978 16.7009 0.06509 0.382105 -2.871232
2006-12-22 08:36:33 51°9.992 2°36.945 16.702 0.06509 0.382105 -2.871232
2006-12-22 08:36:38 51°9.989 2°36.911 16.6834 0.06509 0.382105 -2.871232
2006-12-22 08:36:43 51°9.984 2°36.878 16.67 0.06509 0.382105 -2.871232
2006-12-22 08:36:48 51°9.981 2°36.844 16.6765 0.06509 0.382105 -2.871232
2006-12-22 08:36:53 51°9.977 2°36.811 16.6826 0.064988 0.381472 -2.871232
2006-12-22 08:36:58 51°9.974 2°36.777 16.6918 0.064988 0.381472 -2.871232
2006-12-22 08:37:03 51°9.97 2°36.744 16.7017 0.064988 0.381472 -2.871232
2006-12-22 08:37:08 51°9.967 2°36.71 16.7104 0.06509 0.382096 -2.871232
2006-12-22 08:37:13 51°9.964 2°36.676 16.7047 0.06509 0.382096 -2.871232
2006-12-22 08:37:18 51°9.961 2°36.643 16.7239 0.064988 0.381472 -2.871232
2006-12-22 08:37:23 51°9.958 2°36.609 16.6891 0.064988 0.381472 -2.871232
2006-12-22 08:37:28 51°9.954 2°36.576 16.6921 0.06509 0.382105 -2.871232
2006-12-22 08:37:33 51°9.951 2°36.542 16.6777 0.06509 0.382105 -2.871232
2006-12-22 08:37:38 51°9.948 2°36.509 16.7035 0.06509 0.382096 -2.871232
2006-12-22 08:37:43 51°9.944 2°36.475 16.6756 0.06509 0.382096 -2.871232
2006-12-22 08:37:48 51°9.941 2°36.442 16.6982 0.06509 0.382096 -2.871232
2006-12-22 08:37:53 51°9.938 2°36.408 16.6871 0.064988 0.381472 -2.871232
2006-12-22 08:37:58 51°9.935 2°36.375 16.6539 0.06509 0.382096 -2.871232
2006-12-22 08:38:03 51°9.933 2°36.341 16.6437 0.06509 0.382096 -2.871232
2006-12-22 08:38:08 51°9.931 2°36.308 16.7503 0.06509 0.382088 -2.871232
2006-12-22 08:38:13 51°9.93 2°36.274 16.6635 0.06509 0.382088 -2.871232
2006-12-22 08:38:18 51°9.93 2°36.241 16.6631 0.064988 0.381464 -2.871232
2006-12-22 08:38:23 51°9.93 2°36.207 16.6974 0.06509 0.382096 -2.871232
2006-12-22 08:38:28 51°9.93 2°36.174 16.6859 0.06509 0.382088 -2.871232
2006-12-22 08:38:33 51°9.932 2°36.141 16.7301 0.06509 0.382088 -2.871232
2006-12-22 08:38:38 51°9.935 2°36.108 16.7232 0.064988 0.381464 -2.871232
2006-12-22 08:38:43 51°9.938 2°36.076 16.6389 0.064988 0.381472 -2.871232
2006-12-22 08:38:48 51°9.944 2°36.044 16.8046 0.064988 0.381464 -2.871232
2006-12-22 08:38:53 51°9.949 2°36.013 16.7155 0.064988 0.381464 -2.871232
2006-12-22 08:38:58 51°9.956 2°35.983 16.8118 0.06509 0.382096 -2.871232
2006-12-22 08:39:03 51°9.963 2°35.953 16.7936 0.06509 0.382096 -2.871232
2006-12-22 08:39:08 51°9.971 2°35.923 16.821 0.06509 0.382096 -2.871232
2006-12-22 08:39:13 51°9.978 2°35.893 16.7922 0.064988 0.381472 -2.871232
2006-12-22 08:39:18 51°9.986 2°35.863 16.7981 0.06509 0.382096 -2.871232
2006-12-22 08:39:23 51°9.994 2°35.834 16.7878 0.06509 0.382096 -2.871232
2006-12-22 08:39:28 51°10.002 2°35.804 16.7643 0.06509 0.382088 -2.871232
2006-12-22 08:39:33 51°10.01 2°35.775 16.7635 0.06509 0.382088 -2.871232
2006-12-22 08:39:38 51°10.018 2°35.745 16.6883 0.06509 0.382096 -2.871232
2006-12-22 08:39:43 51°10.028 2°35.717 16.743 0.064988 0.381455 -2.871232
2006-12-22 08:39:48 51°10.037 2°35.69 16.7401 0.06509 0.38208 -2.871232
2006-12-22 08:39:53 51°10.048 2°35.663 16.6963 0.06509 0.382088 -2.871232
2006-12-22 08:39:58 51°10.059 2°35.638 16.6683 0.064988 0.381455 -2.871232
2006-12-22 08:40:03 51°10.072 2°35.615 16.7861 0.064988 0.381455 -2.871232
2006-12-22 08:40:08 51°10.085 2°35.593 16.7716 0.06509 0.382088 -2.871232
2006-12-22 08:40:13 51°10.099 2°35.573 16.7561 0.06509 0.382088 -2.871232
2006-12-22 08:40:18 51°10.113 2°35.554 16.7837 0.06509 0.382088 -2.871232
2006-12-22 08:40:23 51°10.128 2°35.536 16.7681 0.06509 0.382096 -2.871232
2006-12-22 08:40:28 51°10.143 2°35.52 16.774 0.06509 0.382096 -2.871232
2006-12-22 08:40:33 51°10.159 2°35.504 16.7272 0.06509 0.382096 -2.871232
2006-12-22 08:40:38 51°10.175 2°35.491 16.7127 0.06509 0.382088 -2.871232
2006-12-22 08:40:43 51°10.191 2°35.48 16.6819 0.06509 0.382088 -2.871232
2006-12-22 08:40:48 51°10.209 2°35.471 16.8079 0.06509 0.38208 -2.871232
2006-12-22 08:40:53 51°10.226 2°35.464 16.7861 0.06509 0.382088 -2.871232
2006-12-22 08:40:58 51°10.244 2°35.459 16.8112 0.06509 0.38208 -2.871232
2006-12-22 08:41:03 51°10.261 2°35.457 16.8321 0.06509 0.38208 -2.871232
2006-12-22 08:41:08 51°10.279 2°35.454 16.8259 0.06509 0.382088 -2.871232
2006-12-22 08:41:13 51°10.297 2°35.454 16.8382 0.064988 0.381455 -2.871232
2006-12-22 08:41:18 51°10.314 2°35.454 16.8039 0.06509 0.38208 -2.871232
2006-12-22 08:41:23 51°10.332 2°35.454 16.7889 0.06509 0.382088 -2.871232
2006-12-22 08:41:28 51°10.35 2°35.457 16.8495 0.06509 0.382072 -2.871232
2006-12-22 08:41:33 51°10.367 2°35.462 16.7617 0.06509 0.382072 -2.871232
2006-12-22 08:41:38 51°10.384 2°35.468 16.8109 0.06509 0.38208 -2.871232
2006-12-22 08:41:43 51°10.401 2°35.475 16.8229 0.06509 0.38208 -2.871232
2006-12-22 08:41:48 51°10.418 2°35.484 16.8393 0.06509 0.382072 -2.871232
2006-12-22 08:41:53 51°10.434 2°35.495 16.8112 0.06509 0.38208 -2.871232
2006-12-22 08:41:58 51°10.449 2°35.506 16.7718 0.06509 0.38208 -2.871232
2006-12-22 08:42:03 51°10.464 2°35.52 16.82 0.06509 0.38208 -2.871232
2006-12-22 08:42:08 51°10.479 2°35.534 16.8289 0.06509 0.38208 -2.871232
2006-12-22 08:42:13 51°10.493 2°35.549 16.8071 0.06509 0.38208 -2.871232
2006-12-22 08:42:18 51°10.507 2°35.564 16.8132 0.06509 0.38208 -2.871232
2006-12-22 08:42:23 51°10.521 2°35.58 16.8136 0.064988 0.381447 -2.871232
2006-12-22 08:42:28 51°10.535 2°35.596 16.797 0.06509 0.382072 -2.871232
2006-12-22 08:42:33 51°10.549 2°35.612 16.7791 0.06509 0.382072 -2.871232
2006-12-22 08:42:38 51°10.563 2°35.629 16.8046 0.064988 0.381447 -2.871232
2006-12-22 08:42:43 51°10.577 2°35.645 16.7775 0.06509 0.382072 -2.871232
2006-12-22 08:42:48 51°10.59 2°35.661 16.7822 0.06509 0.382064 -2.871232
2006-12-22 08:42:53 51°10.604 2°35.677 16.7516 0.06509 0.382072 -2.871232
2006-12-22 08:42:58 51°10.618 2°35.693 16.7672 0.06509 0.382072 -2.871232
2006-12-22 08:43:03 51°10.632 2°35.709 16.7434 0.06509 0.382072 -2.871232
2006-12-22 08:43:08 51°10.647 2°35.725 16.6826 0.06509 0.382072 -2.871232
2006-12-22 08:43:13 51°10.661 2°35.741 16.731 0.06509 0.382072 -2.871232
2006-12-22 08:43:18 51°10.675 2°35.757 16.7081 0.06509 0.38208 -2.871232
2006-12-22 08:43:23 51°10.689 2°35.773 16.7337 0.06509 0.38208 -2.871232
2006-12-22 08:43:28 51°10.703 2°35.789 16.7223 0.06509 0.38208 -2.871232
2006-12-22 08:43:33 51°10.717 2°35.805 16.7375 0.06509 0.38208 -2.871232
2006-12-22 08:43:38 51°10.731 2°35.822 16.7156 0.06509 0.38208 -2.871232
2006-12-22 08:43:43 51°10.746 2°35.838 16.7434 0.06509 0.38208 -2.871232
2006-12-22 08:43:48 51°10.76 2°35.854 16.7281 0.06509 0.38208 -2.871232
2006-12-22 08:43:53 51°10.774 2°35.87 16.7411 0.06509 0.382072 -2.871232
2006-12-22 08:43:58 51°10.788 2°35.887 16.744 0.06509 0.382072 -2.871232
2006-12-22 08:44:03 51°10.802 2°35.904 16.7528 0.06509 0.382072 -2.871232
2006-12-22 08:44:08 51°10.816 2°35.92 16.7621 0.06509 0.382072 -2.871232
2006-12-22 08:44:13 51°10.83 2°35.936 16.7422 0.06509 0.382072 -2.871232
2006-12-22 08:44:18 51°10.845 2°35.952 16.7668 0.06509 0.382072 -2.871232
2006-12-22 08:44:23 51°10.859 2°35.969 16.7466 0.06509 0.382064 -2.871232
2006-12-22 08:44:28 51°10.873 2°35.985 16.7614 0.06509 0.382064 -2.871232
2006-12-22 08:44:33 51°10.887 2°36.002 16.7656 0.06509 0.382064 -2.871232
2006-12-22 08:44:38 51°10.901 2°36.018 16.7446 0.06509 0.382064 -2.871232
2006-12-22 08:44:43 51°10.915 2°36.034 16.7476 0.06509 0.382064 -2.871232
2006-12-22 08:44:48 51°10.929 2°36.051 16.7625 0.06509 0.382072 -2.871232
2006-12-22 08:44:53 51°10.943 2°36.067 16.7542 0.06509 0.382064 -2.871232
2006-12-22 08:44:58 51°10.957 2°36.084 16.7634 0.06509 0.382064 -2.871232
2006-12-22 08:45:03 51°10.971 2°36.1 16.7447 0.06509 0.382064 -2.871232
2006-12-22 08:45:08 51°10.985 2°36.117 16.7494 0.06509 0.382064 -2.871232
2006-12-22 08:45:13 51°10.999 2°36.134 16.7754 0.06509 0.382064 -2.871232
2006-12-22 08:45:18 51°11.013 2°36.15 16.745 0.06509 0.382064 -2.871232
2006-12-22 08:45:23 51°11.027 2°36.168 16.7626 0.06509 0.382064 -2.871232
2006-12-22 08:45:28 51°11.041 2°36.184 16.7631 0.064988 0.381439 -2.871232
2006-12-22 08:45:33 51°11.055 2°36.201 16.772 0.064988 0.381439 -2.871232
2006-12-22 08:45:38 51°11.069 2°36.218 16.7654 0.06509 0.382064 -2.871232
2006-12-22 08:45:43 51°11.083 2°36.234 16.7428 0.064988 0.381431 -2.871232
2006-12-22 08:45:48 51°11.097 2°36.251 16.7659 0.06509 0.382064 -2.871232
2006-12-22 08:45:53 51°11.111 2°36.267 16.7761 0.06509 0.382055 -2.871232
2006-12-22 08:45:58 51°11.125 2°36.284 16.7656 0.06509 0.382064 -2.871232
2006-12-22 08:46:03 51°11.139 2°36.3 16.7754 0.06509 0.382064 -2.871232
2006-12-22 08:46:08 51°11.153 2°36.317 16.7816 0.06509 0.382055 -2.871232
2006-12-22 08:46:13 51°11.167 2°36.333 16.7724 0.06509 0.382055 -2.871232
2006-12-22 08:46:18 51°11.181 2°36.35 16.7784 0.06509 0.382055 -2.871232
2006-12-22 08:46:23 51°11.195 2°36.367 16.7867 0.06509 0.382055 -2.871232
2006-12-22 08:46:28 51°11.209 2°36.384 16.7955 0.06509 0.382055 -2.871232
2006-12-22 08:46:33 51°11.223 2°36.4 16.7682 0.06509 0.382055 -2.871232
2006-12-22 08:46:38 51°11.237 2°36.417 16.784 0.06509 0.382055 -2.871232
2006-12-22 08:46:43 51°11.25 2°36.434 16.7577 0.06509 0.382055 -2.871232
2006-12-22 08:46:48 51°11.265 2°36.45 16.7769 0.06509 0.382055 -2.871232
2006-12-22 08:46:53 51°11.279 2°36.467 16.7898 0.064988 0.381431 -2.871232
2006-12-22 08:46:58 51°11.293 2°36.483 16.7477 0.06509 0.382055 -2.871232
2006-12-22 08:47:03 51°11.307 2°36.498 16.7464 0.06509 0.382055 -2.871232
2006-12-22 08:47:08 51°11.322 2°36.514 16.769 0.06509 0.382055 -2.871232
2006-12-22 08:47:13 51°11.336 2°36.529 16.7685 0.06509 0.382055 -2.871232
2006-12-22 08:47:18 51°11.351 2°36.545 16.7434 0.06509 0.382047 -2.871232
2006-12-22 08:47:23 51°11.365 2°36.561 16.7494 0.064988 0.381431 -2.871232
2006-12-22 08:47:28 51°11.379 2°36.576 16.7582 0.064988 0.381423 -2.871232
2006-12-22 08:47:33 51°11.394 2°36.592 16.7654 0.064988 0.381423 -2.871232
2006-12-22 08:47:38 51°11.408 2°36.608 16.7368 0.06509 0.382047 -2.871232
2006-12-22 08:47:43 51°11.423 2°36.623 16.7622 0.06509 0.382047 -2.871232
2006-12-22 08:47:48 51°11.437 2°36.639 16.7714 0.06509 0.382047 -2.871232
2006-12-22 08:47:53 51°11.451 2°36.655 16.7755 0.06509 0.382047 -2.871232
2006-12-22 08:47:58 51°11.466 2°36.671 16.7622 0.06509 0.382047 -2.871232
2006-12-22 08:48:03 51°11.48 2°36.687 16.7628 0.06509 0.382047 -2.871232
2006-12-22 08:48:08 51°11.495 2°36.702 16.7773 0.06509 0.382047 -2.871232
2006-12-22 08:48:13 51°11.509 2°36.718 16.7466 0.06509 0.382047 -2.871232
2006-12-22 08:48:18 51°11.523 2°36.734 16.7821 0.064988 0.381423 -2.871232
2006-12-22 08:48:23 51°11.538 2°36.75 16.7785 0.06509 0.382047 -2.871232
2006-12-22 08:48:28 51°11.552 2°36.766 16.7618 0.06509 0.382047 -2.871232
2006-12-22 08:48:33 51°11.566 2°36.782 16.7481 0.06509 0.382047 -2.871232
2006-12-22 08:48:38 51°11.581 2°36.798 16.7433 0.064988 0.381423 -2.871232
2006-12-22 08:48:43 51°11.595 2°36.813 16.7516 0.06509 0.382047 -2.871232
2006-12-22 08:48:48 51°11.61 2°36.829 16.7306 0.06509 0.382039 -2.871232
2006-12-22 08:48:53 51°11.624 2°36.845 16.7426 0.06509 0.382047 -2.871232
2006-12-22 08:48:58 51°11.638 2°36.861 16.7107 0.06509 0.382039 -2.871232
2006-12-22 08:49:03 51°11.652 2°36.877 16.7287 0.06509 0.382039 -2.871232
2006-12-22 08:49:08 51°11.667 2°36.892 16.7328 0.06509 0.382047 -2.871232
2006-12-22 08:49:13 51°11.681 2°36.908 16.7421 0.06509 0.382039 -2.871232
2006-12-22 08:49:18 51°11.695 2°36.924 16.7347 0.064988 0.381414 -2.871232
2006-12-22 08:49:23 51°11.71 2°36.94 16.7371 0.064988 0.381414 -2.871232
2006-12-22 08:49:28 51°11.724 2°36.956 16.7593 0.06509 0.382039 -2.871232
2006-12-22 08:49:33 51°11.739 2°36.971 16.7775 0.06509 0.382039 -2.871232
2006-12-22 08:49:38 51°11.753 2°36.986 16.7367 0.06509 0.382039 -2.871232
2006-12-22 08:49:43 51°11.768 2°37.001 16.7233 0.06509 0.382039 -2.871232
2006-12-22 08:49:48 51°11.783 2°37.016 16.7374 0.06509 0.382039 -2.871232
2006-12-22 08:49:53 51°11.797 2°37.03 16.7515 0.06509 0.382031 -2.871232
2006-12-22 08:49:58 51°11.812 2°37.045 16.7527 0.06509 0.382039 -2.871232
2006-12-22 08:50:03 51°11.827 2°37.06 16.7159 0.06509 0.382039 -2.871232
2006-12-22 08:50:08 51°11.842 2°37.074 16.7339 0.06509 0.382039 -2.871232
2006-12-22 08:50:13 51°11.857 2°37.089 16.7411 0.064988 0.381406 -2.871232
2006-12-22 08:50:18 51°11.872 2°37.103 16.7614 0.06509 0.382031 -2.871232
2006-12-22 08:50:23 51°11.887 2°37.118 16.7319 0.06509 0.382031 -2.871232
2006-12-22 08:50:28 51°11.901 2°37.132 16.7502 0.06509 0.382031 -2.871232
2006-12-22 08:50:33 51°11.916 2°37.147 16.7474 0.06509 0.382031 -2.871232
2006-12-22 08:50:38 51°11.931 2°37.162 16.7628 0.06509 0.382031 -2.871232
2006-12-22 08:50:43 51°11.946 2°37.177 16.7619 0.06509 0.382031 -2.871232
2006-12-22 08:50:48 51°11.961 2°37.191 16.7731 0.06509 0.382031 -2.871232
2006-12-22 08:50:53 51°11.976 2°37.205 16.7666 0.06509 0.382031 -2.871232
2006-12-22 08:50:58 51°11.991 2°37.218 16.7689 0.06509 0.382031 -2.871232
2006-12-22 08:51:03 51°12.006 2°37.232 16.7847 0.06509 0.382031 -2.871232
2006-12-22 08:51:08 51°12.021 2°37.245 16.7586 0.06509 0.382031 -2.871232
2006-12-22 08:51:13 51°12.036 2°37.259 16.7708 0.06509 0.382023 -2.871232
2006-12-22 08:51:18 51°12.051 2°37.273 16.7738 0.06509 0.382023 -2.871232
2006-12-22 08:51:23 51°12.067 2°37.287 16.7811 0.06509 0.382023 -2.871232
2006-12-22 08:51:28 51°12.082 2°37.301 16.7818 0.06509 0.382023 -2.871232
2006-12-22 08:51:33 51°12.097 2°37.314 16.7861 0.06509 0.382023 -2.871232
2006-12-22 08:51:38 51°12.112 2°37.328 16.7743 0.06509 0.382023 -2.871232
2006-12-22 08:51:43 51°12.127 2°37.342 16.7837 0.06509 0.382023 -2.871232
2006-12-22 08:51:48 51°12.142 2°37.356 16.7887 0.06509 0.382023 -2.871232
2006-12-22 08:51:53 51°12.157 2°37.37 16.8294 0.06509 0.382023 -2.871232
2006-12-22 08:51:58 51°12.172 2°37.384 16.7958 0.06509 0.382023 -2.871232
2006-12-22 08:52:03 51°12.187 2°37.398 16.8054 0.06509 0.382023 -2.871232
2006-12-22 08:52:08 51°12.203 2°37.411 16.7798 0.06509 0.382023 -2.871232
2006-12-22 08:52:13 51°12.218 2°37.425 16.8099 0.06509 0.382014 -2.871232
2006-12-22 08:52:18 51°12.233 2°37.439 16.8007 0.064988 0.38139 -2.871232
2006-12-22 08:52:23 51°12.248 2°37.452 16.7912 0.06509 0.382014 -2.871232
2006-12-22 08:52:28 51°12.263 2°37.466 16.8073 0.06509 0.382014 -2.871232
2006-12-22 08:52:33 51°12.278 2°37.48 16.8095 0.06509 0.382014 -2.871232
2006-12-22 08:52:38 51°12.294 2°37.494 16.7943 0.06509 0.382014 -2.871232
2006-12-22 08:52:43 51°12.309 2°37.508 16.7997 0.06509 0.382014 -2.871232
2006-12-22 08:52:48 51°12.324 2°37.521 16.7698 0.06509 0.382014 -2.871232
2006-12-22 08:52:53 51°12.339 2°37.535 16.7703 0.06509 0.382014 -2.871232
2006-12-22 08:52:58 51°12.354 2°37.549 16.8012 0.064988 0.38139 -2.871232
2006-12-22 08:53:03 51°12.369 2°37.562 16.7504 0.064988 0.38139 -2.871232
2006-12-22 08:53:08 51°12.384 2°37.576 16.7827 0.06509 0.382014 -2.871232
2006-12-22 08:53:13 51°12.4 2°37.589 16.7686 0.06509 0.382006 -2.871232
2006-12-22 08:53:18 51°12.415 2°37.603 16.7526 0.06509 0.382006 -2.871232
2006-12-22 08:53:23 51°12.43 2°37.617 16.7631 0.06509 0.382006 -2.871232
2006-12-22 08:53:28 51°12.445 2°37.631 16.7752 0.06509 0.382006 -2.871232
2006-12-22 08:53:33 51°12.461 2°37.644 16.7847 0.06509 0.382006 -2.871232
2006-12-22 08:53:38 51°12.476 2°37.658 16.7824 0.06509 0.382014 -2.871232
2006-12-22 08:53:43 51°12.491 2°37.671 16.7907 0.06509 0.382006 -2.871232
2006-12-22 08:53:48 51°12.506 2°37.685 16.7916 0.06509 0.382006 -2.871232
2006-12-22 08:53:53 51°12.521 2°37.699 16.7843 0.06509 0.382006 -2.871232
2006-12-22 08:53:58 51°12.537 2°37.712 16.8085 0.06509 0.381998 -2.871232
2006-12-22 08:54:03 51°12.552 2°37.726 16.8104 0.06509 0.381998 -2.871232
2006-12-22 08:54:08 51°12.567 2°37.739 16.8065 0.06509 0.382006 -2.871232
2006-12-22 08:54:13 51°12.582 2°37.753 16.8117 0.06509 0.382006 -2.871232
2006-12-22 08:54:18 51°12.598 2°37.766 16.825 0.06509 0.382006 -2.871232
2006-12-22 08:54:23 51°12.613 2°37.78 16.785 0.064988 0.381382 -2.871232
2006-12-22 08:54:28 51°12.628 2°37.794 16.7908 0.06509 0.381998 -2.871232
2006-12-22 08:54:33 51°12.643 2°37.808 16.8094 0.06509 0.381998 -2.871232
2006-12-22 08:54:38 51°12.659 2°37.821 16.8141 0.06509 0.381998 -2.871232
2006-12-22 08:54:43 51°12.674 2°37.835 16.8108 0.06509 0.381998 -2.871232
2006-12-22 08:54:48 51°12.689 2°37.849 16.8156 0.06509 0.381998 -2.871232
2006-12-22 08:54:53 51°12.705 2°37.862 16.8063 0.06509 0.381998 -2.871232
2006-12-22 08:54:58 51°12.72 2°37.876 16.8037 0.06509 0.381998 -2.871232
2006-12-22 08:55:03 51°12.735 2°37.89 16.8191 0.06509 0.381998 -2.871232
2006-12-22 08:55:08 51°12.75 2°37.903 16.7971 0.06509 0.381998 -2.871232
2006-12-22 08:55:13 51°12.766 2°37.917 16.7905 0.06509 0.381998 -2.871232
2006-12-22 08:55:18 51°12.781 2°37.93 16.8096 0.06509 0.381998 -2.871232
2006-12-22 08:55:23 51°12.796 2°37.943 16.8269 0.06509 0.381998 -2.871232
2006-12-22 08:55:28 51°12.812 2°37.957 16.7904 0.06509 0.38199 -2.871232
2006-12-22 08:55:33 51°12.827 2°37.97 16.839 0.06509 0.38199 -2.871232
2006-12-22 08:55:38 51°12.842 2°37.984 16.8524 0.06509 0.38199 -2.871232
2006-12-22 08:55:43 51°12.857 2°37.998 16.8432 0.06509 0.38199 -2.871232
2006-12-22 08:55:48 51°12.873 2°38.011 16.8485 0.06509 0.38199 -2.871232
2006-12-22 08:55:53 51°12.888 2°38.025 16.8294 0.06509 0.38199 -2.871232
2006-12-22 08:55:58 51°12.903 2°38.038 16.8448 0.06509 0.38199 -2.871232
2006-12-22 08:56:03 51°12.918 2°38.052 16.8194 0.06509 0.38199 -2.871232
2006-12-22 08:56:08 51°12.934 2°38.065 16.8389 0.06509 0.38199 -2.871232
2006-12-22 08:56:13 51°12.949 2°38.079 16.8445 0.06509 0.38199 -2.871232
2006-12-22 08:56:18 51°12.964 2°38.093 16.8427 0.06509 0.38199 -2.871232
2006-12-22 08:56:23 51°12.98 2°38.106 16.8413 0.06509 0.38199 -2.871232
2006-12-22 08:56:28 51°12.995 2°38.119 16.8454 0.06509 0.38199 -2.871232
2006-12-22 08:56:33 51°13.01 2°38.133 16.8423 0.06509 0.38199 -2.871232
2006-12-22 08:56:38 51°13.026 2°38.146 16.8509 0.06509 0.38199 -2.871232
2006-12-22 08:56:43 51°13.041 2°38.16 16.8592 0.064988 0.381357 -2.871232
2006-12-22 08:56:48 51°13.057 2°38.173 16.8334 0.06509 0.381982 -2.871232
2006-12-22 08:56:53 51°13.072 2°38.187 16.8581 0.06509 0.381982 -2.871232
2006-12-22 08:56:58 51°13.088 2°38.2 16.8421 0.06509 0.381982 -2.871232
2006-12-22 08:57:03 51°13.103 2°38.213 16.8419 0.06509 0.381982 -2.871232
2006-12-22 08:57:08 51°13.119 2°38.227 16.8216 0.06509 0.381982 -2.871232
2006-12-22 08:57:13 51°13.134 2°38.24 16.8203 0.064988 0.381357 -2.871232
2006-12-22 08:57:18 51°13.149 2°38.254 16.8317 0.06509 0.381982 -2.871232
2006-12-22 08:57:23 51°13.165 2°38.267 16.8536 0.06509 0.381982 -2.871232
2006-12-22 08:57:28 51°13.18 2°38.281 16.848 0.06509 0.381982 -2.871232
2006-12-22 08:57:33 51°13.196 2°38.294 16.8393 0.06509 0.381982 -2.871232
2006-12-22 08:57:38 51°13.211 2°38.307 16.8619 0.06509 0.381982 -2.871232
2006-12-22 08:57:43 51°13.227 2°38.321 16.8536 0.06509 0.381973 -2.871232
2006-12-22 08:57:48 51°13.242 2°38.334 16.8356 0.06509 0.381973 -2.871232
2006-12-22 08:57:53 51°13.257 2°38.348 16.8455 0.06509 0.381973 -2.871232
2006-12-22 08:57:58 51°13.273 2°38.362 16.8412 0.06509 0.381973 -2.871232
2006-12-22 08:58:03 51°13.288 2°38.375 16.8566 0.06509 0.381973 -2.871232
2006-12-22 08:58:08 51°13.304 2°38.389 16.8463 0.06509 0.381973 -2.871232
2006-12-22 08:58:13 51°13.319 2°38.402 16.8464 0.06509 0.381973 -2.871232
2006-12-22 08:58:18 51°13.334 2°38.415 16.842 0.06509 0.381973 -2.871232
2006-12-22 08:58:23 51°13.35 2°38.429 16.8435 0.06509 0.381973 -2.871232
2006-12-22 08:58:28 51°13.365 2°38.443 16.8639 0.06509 0.381973 -2.871232
2006-12-22 08:58:33 51°13.381 2°38.456 16.8446 0.06509 0.381973 -2.871232
2006-12-22 08:58:38 51°13.396 2°38.47 16.8589 0.06509 0.381965 -2.871232
2006-12-22 08:58:43 51°13.411 2°38.483 16.8594 0.06509 0.381965 -2.871232
2006-12-22 08:58:48 51°13.427 2°38.496 16.8676 0.06509 0.381973 -2.871232
2006-12-22 08:58:53 51°13.443 2°38.509 16.8619 0.06509 0.381973 -2.871232
2006-12-22 08:58:58 51°13.458 2°38.521 16.8448 0.06509 0.381965 -2.871232